Time,TemperatureF,DewpointF,PressureIn,WindDirection,WindDirectionDegrees,WindSpeedMPH,WindSpeedGustMPH,Humidity,HourlyPrecipIn,Conditions,Clouds,dailyrainin,SoftwareType,DateUTC
2014-08-29 00:00:00,69.8,57.1,17.72,ESE,119,0.0,0.0,64,0.00,,---,0.00,VWS V15.00,2014-08-29 05:00:00,
2014-08-29 00:02:00,69.8,57.1,17.72,ESE,112,0.0,0.0,64,0.00,,---,0.00,VWS V15.00,2014-08-29 05:02:00,
2014-08-29 00:03:00,69.8,57.1,17.72,ESE,112,0.0,0.0,64,0.00,,---,0.00,VWS V15.00,2014-08-29 05:03:00,
2014-08-29 00:05:00,69.6,57.3,17.72,ESE,103,0.0,0.0,65,0.00,,---,0.00,VWS V15.00,2014-08-29 05:05:00,
2014-08-29 00:06:00,69.6,57.3,17.72,East,95,0.0,0.0,65,0.00,,---,0.00,VWS V15.00,2014-08-29 05:06:00,
2014-08-29 00:08:00,69.6,57.3,17.72,East,99,0.0,0.0,65,0.00,,---,0.00,VWS V15.00,2014-08-29 05:08:00,
2014-08-29 00:09:00,69.6,57.3,17.72,ESE,110,0.0,3.1,65,0.00,,---,0.00,VWS V15.00,2014-08-29 05:09:00,
2014-08-29 00:10:00,69.6,57.3,17.72,ESE,118,0.0,0.0,65,0.00,,---,0.00,VWS V15.00,2014-08-29 05:10:00,
2014-08-29 00:12:00,69.6,57.3,17.72,ESE,118,0.0,0.0,65,0.00,,---,0.00,VWS V15.00,2014-08-29 05:12:00,
2014-08-29 00:13:00,69.6,57.3,17.72,East,91,0.0,0.0,65,0.00,,---,0.00,VWS V15.00,2014-08-29 05:13:00,
2014-08-29 00:14:00,69.6,57.3,17.72,East,91,0.0,0.0,65,0.00,,---,0.00,VWS V15.00,2014-08-29 05:14:00,
2014-08-29 00:15:00,69.6,57.3,17.72,East,86,0.0,0.0,65,0.00,,---,0.00,VWS V15.00,2014-08-29 05:15:00,
2014-08-29 00:16:00,69.6,57.3,17.72,East,86,0.0,0.0,65,0.00,,---,0.00,VWS V15.00,2014-08-29 05:16:00,
2014-08-29 00:17:00,69.6,57.3,17.72,East,86,0.0,0.0,65,0.00,,---,0.00,VWS V15.00,2014-08-29 05:17:00,
2014-08-29 00:19:00,69.4,57.2,17.72,ESE,123,0.0,0.0,65,0.00,,---,0.00,VWS V15.00,2014-08-29 05:19:00,
2014-08-29 00:20:00,69.4,57.2,17.72,NE,35,0.0,0.0,65,0.00,,---,0.00,VWS V15.00,2014-08-29 05:20:00,
2014-08-29 00:21:00,69.4,57.2,17.72,ENE,59,0.0,0.0,65,0.00,,---,0.00,VWS V15.00,2014-08-29 05:21:00,
2014-08-29 00:22:00,69.4,57.2,17.72,ESE,104,0.0,0.0,65,0.00,,---,0.00,VWS V15.00,2014-08-29 05:22:00,
2014-08-29 00:24:00,69.4,57.2,17.72,SE,136,3.6,3.6,65,0.00,,---,0.00,VWS V15.00,2014-08-29 05:24:00,
2014-08-29 00:25:00,69.4,57.2,17.72,ESE,113,0.0,4.9,65,0.00,,---,0.00,VWS V15.00,2014-08-29 05:25:00,
2014-08-29 00:26:00,69.4,57.2,17.72,East,79,0.0,0.0,65,0.00,,---,0.00,VWS V15.00,2014-08-29 05:26:00,
2014-08-29 00:27:00,69.4,57.2,17.72,South,189,0.0,3.1,65,0.00,,---,0.00,VWS V15.00,2014-08-29 05:27:00,
2014-08-29 00:29:00,69.4,57.2,17.72,ESE,122,3.1,3.1,65,0.00,,---,0.00,VWS V15.00,2014-08-29 05:29:00,
2014-08-29 00:30:00,69.4,57.2,17.72,ESE,107,0.0,3.1,65,0.00,,---,0.00,VWS V15.00,2014-08-29 05:30:00,
2014-08-29 00:31:00,69.4,57.2,17.72,SE,124,0.0,0.0,65,0.00,,---,0.00,VWS V15.00,2014-08-29 05:31:00,
2014-08-29 00:32:00,69.4,57.2,17.72,East,85,0.0,0.0,65,0.00,,---,0.00,VWS V15.00,2014-08-29 05:32:00,
2014-08-29 00:33:00,69.4,57.2,17.72,SSE,150,0.0,0.0,65,0.00,,---,0.00,VWS V15.00,2014-08-29 05:33:00,
2014-08-29 00:34:00,69.4,57.2,17.72,SE,127,5.4,5.4,65,0.00,,---,0.00,VWS V15.00,2014-08-29 05:34:00,
2014-08-29 00:35:00,69.4,57.2,17.72,ENE,77,0.0,0.0,65,0.00,,---,0.00,VWS V15.00,2014-08-29 05:35:00,
2014-08-29 00:36:00,69.4,57.2,17.72,East,101,0.0,0.0,65,0.00,,---,0.00,VWS V15.00,2014-08-29 05:36:00,
2014-08-29 00:37:00,69.4,58.0,17.72,East,95,0.0,0.0,67,0.00,,---,0.00,VWS V15.00,2014-08-29 05:37:00,
2014-08-29 00:38:00,69.4,58.0,17.72,East,95,0.0,0.0,67,0.00,,---,0.00,VWS V15.00,2014-08-29 05:38:00,
2014-08-29 00:39:00,69.4,58.0,17.72,ENE,74,0.0,0.0,67,0.00,,---,0.00,VWS V15.00,2014-08-29 05:39:00,
2014-08-29 00:41:00,69.3,57.8,17.72,East,87,0.0,5.4,67,0.00,,---,0.00,VWS V15.00,2014-08-29 05:41:00,
2014-08-29 00:42:00,69.3,57.8,17.72,East,87,0.0,0.0,67,0.00,,---,0.00,VWS V15.00,2014-08-29 05:42:00,
2014-08-29 00:43:00,69.3,57.8,17.72,East,82,0.0,0.0,67,0.00,,---,0.00,VWS V15.00,2014-08-29 05:43:00,
2014-08-29 00:44:00,69.3,57.8,17.72,East,84,0.0,0.0,67,0.00,,---,0.00,VWS V15.00,2014-08-29 05:44:00,
2014-08-29 00:46:00,69.3,57.8,17.72,East,99,0.0,0.0,67,0.00,,---,0.00,VWS V15.00,2014-08-29 05:46:00,
2014-08-29 00:48:00,69.3,57.8,17.72,SSE,150,2.7,2.7,67,0.00,,---,0.00,VWS V15.00,2014-08-29 05:48:00,
2014-08-29 00:50:00,69.3,57.8,17.72,ESE,111,0.0,0.0,67,0.00,,---,0.00,VWS V15.00,2014-08-29 05:50:00,
2014-08-29 00:51:00,69.3,57.8,17.72,ENE,60,0.0,0.0,67,0.00,,---,0.00,VWS V15.00,2014-08-29 05:51:00,
2014-08-29 00:52:00,69.3,57.8,17.72,ESE,104,0.0,0.0,67,0.00,,---,0.00,VWS V15.00,2014-08-29 05:52:00,
2014-08-29 00:53:00,69.3,57.8,17.72,ESE,102,3.6,3.6,67,0.00,,---,0.00,VWS V15.00,2014-08-29 05:53:00,
2014-08-29 00:55:00,69.3,57.8,17.72,ESE,111,0.0,0.0,67,0.00,,---,0.00,VWS V15.00,2014-08-29 05:55:00,
2014-08-29 00:56:00,69.3,57.8,17.72,SSE,151,0.0,0.0,67,0.00,,---,0.00,VWS V15.00,2014-08-29 05:56:00,
2014-08-29 00:59:00,69.3,57.8,17.72,ESE,115,0.0,0.0,67,0.00,,---,0.00,VWS V15.00,2014-08-29 05:59:00,
2014-08-29 01:00:00,69.1,57.7,17.72,ESE,116,0.0,0.0,67,0.00,,---,0.00,VWS V15.00,2014-08-29 06:00:00,
2014-08-29 01:01:00,69.1,57.7,17.72,East,98,2.2,2.7,67,0.00,,---,0.00,VWS V15.00,2014-08-29 06:01:00,
2014-08-29 01:02:00,69.1,57.7,17.72,South,173,0.0,2.7,67,0.00,,---,0.00,VWS V15.00,2014-08-29 06:02:00,
2014-08-29 01:04:00,69.1,57.7,17.72,SE,125,0.0,0.0,67,0.00,,---,0.00,VWS V15.00,2014-08-29 06:04:00,
2014-08-29 01:05:00,69.1,57.7,17.72,ENE,66,0.0,0.0,67,0.00,,---,0.00,VWS V15.00,2014-08-29 06:05:00,
2014-08-29 01:06:00,69.1,57.7,17.72,East,101,0.0,0.0,67,0.00,,---,0.00,VWS V15.00,2014-08-29 06:06:00,
2014-08-29 01:07:00,69.1,57.7,17.72,East,82,0.0,0.0,67,0.00,,---,0.00,VWS V15.00,2014-08-29 06:07:00,
2014-08-29 01:10:00,69.1,57.7,17.72,ESE,110,2.7,4.0,67,0.00,,---,0.00,VWS V15.00,2014-08-29 06:10:00,
2014-08-29 01:11:00,69.1,57.7,17.72,ESE,120,0.0,0.0,67,0.00,,---,0.00,VWS V15.00,2014-08-29 06:11:00,
2014-08-29 01:12:00,69.1,57.7,17.72,SE,132,0.0,0.0,67,0.00,,---,0.00,VWS V15.00,2014-08-29 06:12:00,
2014-08-29 01:16:00,69.1,57.7,17.72,ESE,111,0.0,0.0,67,0.00,,---,0.00,VWS V15.00,2014-08-29 06:16:00,
2014-08-29 01:17:00,69.1,57.7,17.72,ESE,108,2.2,2.2,67,0.00,,---,0.00,VWS V15.00,2014-08-29 06:17:00,
2014-08-29 01:18:00,68.9,57.5,17.72,East,88,0.0,3.1,67,0.00,,---,0.00,VWS V15.00,2014-08-29 06:18:00,
2014-08-29 01:21:00,68.9,57.5,17.72,ESE,111,0.0,0.0,67,0.00,,---,0.00,VWS V15.00,2014-08-29 06:21:00,
2014-08-29 01:22:00,68.9,57.5,17.72,ESE,104,0.0,2.2,67,0.00,,---,0.00,VWS V15.00,2014-08-29 06:22:00,
2014-08-29 01:23:00,68.9,57.5,17.72,ESE,113,0.0,0.0,67,0.00,,---,0.00,VWS V15.00,2014-08-29 06:23:00,
2014-08-29 01:26:00,68.9,57.5,17.72,ESE,118,0.0,4.0,67,0.00,,---,0.00,VWS V15.00,2014-08-29 06:26:00,
2014-08-29 01:27:00,68.9,57.5,17.72,SE,141,4.0,4.0,67,0.00,,---,0.00,VWS V15.00,2014-08-29 06:27:00,
2014-08-29 01:28:00,68.9,57.5,17.72,SE,126,0.0,4.0,67,0.00,,---,0.00,VWS V15.00,2014-08-29 06:28:00,
2014-08-29 01:29:00,68.9,57.5,17.72,ESE,104,0.0,0.0,67,0.00,,---,0.00,VWS V15.00,2014-08-29 06:29:00,
2014-08-29 01:31:00,68.9,57.5,17.72,ESE,112,0.0,0.0,67,0.00,,---,0.00,VWS V15.00,2014-08-29 06:31:00,
2014-08-29 01:32:00,68.9,57.5,17.72,SE,132,0.0,0.0,67,0.00,,---,0.00,VWS V15.00,2014-08-29 06:32:00,
2014-08-29 01:33:00,68.7,57.3,17.72,SE,141,0.0,0.0,67,0.00,,---,0.00,VWS V15.00,2014-08-29 06:33:00,
2014-08-29 01:34:00,68.7,57.3,17.72,South,169,0.0,0.0,67,0.00,,---,0.00,VWS V15.00,2014-08-29 06:34:00,
2014-08-29 01:37:00,68.7,57.3,17.72,East,96,2.2,3.6,67,0.00,,---,0.00,VWS V15.00,2014-08-29 06:37:00,
2014-08-29 01:38:00,68.7,57.3,17.72,ESE,109,0.0,0.0,67,0.00,,---,0.00,VWS V15.00,2014-08-29 06:38:00,
2014-08-29 01:39:00,68.7,57.3,17.72,ESE,111,0.0,0.0,67,0.00,,---,0.00,VWS V15.00,2014-08-29 06:39:00,
2014-08-29 01:40:00,68.7,57.3,17.72,East,91,2.2,2.2,67,0.00,,---,0.00,VWS V15.00,2014-08-29 06:40:00,
2014-08-29 01:42:00,68.7,57.3,17.72,East,92,0.0,0.0,67,0.00,,---,0.00,VWS V15.00,2014-08-29 06:42:00,
2014-08-29 01:43:00,68.7,57.3,17.72,NE,37,3.6,3.6,67,0.00,,---,0.00,VWS V15.00,2014-08-29 06:43:00,
2014-08-29 01:44:00,68.7,57.3,17.72,East,85,0.0,3.6,67,0.00,,---,0.00,VWS V15.00,2014-08-29 06:44:00,
2014-08-29 01:45:00,68.7,57.3,17.72,East,88,0.0,4.9,67,0.00,,---,0.00,VWS V15.00,2014-08-29 06:45:00,
2014-08-29 01:46:00,68.5,57.2,17.72,ENE,71,0.0,0.0,67,0.00,,---,0.00,VWS V15.00,2014-08-29 06:46:00,
2014-08-29 01:47:00,68.5,57.2,17.72,ESE,104,3.6,4.9,67,0.00,,---,0.00,VWS V15.00,2014-08-29 06:47:00,
2014-08-29 01:48:00,68.5,57.2,17.72,East,101,0.0,3.1,67,0.00,,---,0.00,VWS V15.00,2014-08-29 06:48:00,
2014-08-29 01:49:00,68.5,57.2,17.72,ESE,120,3.6,4.0,67,0.00,,---,0.00,VWS V15.00,2014-08-29 06:49:00,
2014-08-29 01:50:00,68.5,57.2,17.72,East,98,0.0,4.0,67,0.00,,---,0.00,VWS V15.00,2014-08-29 06:50:00,
2014-08-29 01:52:00,68.5,57.2,17.72,ENE,71,0.0,0.0,67,0.00,,---,0.00,VWS V15.00,2014-08-29 06:52:00,
2014-08-29 01:54:00,68.5,57.2,17.72,SE,129,2.7,4.0,67,0.00,,---,0.00,VWS V15.00,2014-08-29 06:54:00,
2014-08-29 01:55:00,68.5,57.2,17.72,ESE,104,0.0,2.7,67,0.00,,---,0.00,VWS V15.00,2014-08-29 06:55:00,
2014-08-29 01:57:00,68.5,57.2,17.72,East,81,0.0,0.0,67,0.00,,---,0.00,VWS V15.00,2014-08-29 06:57:00,
2014-08-29 01:59:00,68.5,57.2,17.72,East,88,0.0,3.1,67,0.00,,---,0.00,VWS V15.00,2014-08-29 06:59:00,
2014-08-29 02:00:00,68.4,57.0,17.72,ESE,115,0.0,2.2,67,0.00,,---,0.00,VWS V15.00,2014-08-29 07:00:00,
2014-08-29 02:03:00,68.4,57.0,17.72,ESE,108,0.0,0.0,67,0.00,,---,0.00,VWS V15.00,2014-08-29 07:03:00,
2014-08-29 02:04:00,68.4,57.0,17.72,ESE,115,0.0,0.0,67,0.00,,---,0.00,VWS V15.00,2014-08-29 07:04:00,
2014-08-29 02:05:00,68.4,57.0,17.72,ESE,106,0.0,0.0,67,0.00,,---,0.00,VWS V15.00,2014-08-29 07:05:00,
2014-08-29 02:06:00,68.4,57.0,17.72,ESE,105,3.1,3.1,67,0.00,,---,0.00,VWS V15.00,2014-08-29 07:06:00,
2014-08-29 02:08:00,68.4,57.0,17.72,SE,126,0.0,2.7,67,0.00,,---,0.00,VWS V15.00,2014-08-29 07:08:00,
2014-08-29 02:09:00,68.4,57.0,17.72,ENE,60,3.1,3.1,67,0.00,,---,0.00,VWS V15.00,2014-08-29 07:09:00,
2014-08-29 02:10:00,68.2,56.8,17.72,SE,142,0.0,3.1,67,0.00,,---,0.00,VWS V15.00,2014-08-29 07:10:00,
2014-08-29 02:11:00,68.2,56.8,17.72,SSW,195,0.0,2.2,67,0.00,,---,0.00,VWS V15.00,2014-08-29 07:11:00,
2014-08-29 02:13:00,68.2,56.8,17.72,East,98,2.7,2.7,67,0.00,,---,0.00,VWS V15.00,2014-08-29 07:13:00,
2014-08-29 02:14:00,68.2,56.8,17.72,East,99,2.7,3.6,67,0.00,,---,0.00,VWS V15.00,2014-08-29 07:14:00,
2014-08-29 02:15:00,68.2,56.8,17.72,East,99,0.0,3.6,67,0.00,,---,0.00,VWS V15.00,2014-08-29 07:15:00,
2014-08-29 02:16:00,68.2,56.8,17.72,SE,133,0.0,5.4,67,0.00,,---,0.00,VWS V15.00,2014-08-29 07:16:00,
2014-08-29 02:18:00,68.2,56.8,17.72,East,97,0.0,3.1,67,0.00,,---,0.00,VWS V15.00,2014-08-29 07:18:00,
2014-08-29 02:19:00,68.2,56.8,17.72,East,99,0.0,0.0,67,0.00,,---,0.00,VWS V15.00,2014-08-29 07:19:00,
2014-08-29 02:20:00,68.2,56.8,17.72,East,99,0.0,0.0,67,0.00,,---,0.00,VWS V15.00,2014-08-29 07:20:00,
2014-08-29 02:21:00,68.2,56.8,17.72,ESE,122,0.0,0.0,67,0.00,,---,0.00,VWS V15.00,2014-08-29 07:21:00,
2014-08-29 02:22:00,68.2,56.8,17.72,East,97,4.5,4.5,67,0.00,,---,0.00,VWS V15.00,2014-08-29 07:22:00,
2014-08-29 02:24:00,68.0,56.7,17.72,East,98,0.0,0.0,67,0.00,,---,0.00,VWS V15.00,2014-08-29 07:24:00,
2014-08-29 02:25:00,68.0,56.7,17.72,ENE,73,5.4,5.4,67,0.00,,---,0.00,VWS V15.00,2014-08-29 07:25:00,
2014-08-29 02:26:00,68.0,56.7,17.72,East,100,4.5,4.5,67,0.00,,---,0.00,VWS V15.00,2014-08-29 07:26:00,
2014-08-29 02:27:00,68.0,56.7,17.72,ESE,103,0.0,0.0,67,0.00,,---,0.00,VWS V15.00,2014-08-29 07:27:00,
2014-08-29 02:28:00,68.0,56.7,17.72,SE,129,3.6,3.6,67,0.00,,---,0.00,VWS V15.00,2014-08-29 07:28:00,
2014-08-29 02:29:00,68.0,56.7,17.72,East,96,3.6,3.6,67,0.00,,---,0.00,VWS V15.00,2014-08-29 07:29:00,
2014-08-29 02:30:00,68.0,56.7,17.72,SE,125,0.0,3.6,67,0.00,,---,0.00,VWS V15.00,2014-08-29 07:30:00,
2014-08-29 02:32:00,68.0,56.7,17.72,ESE,121,2.2,5.4,67,0.00,,---,0.00,VWS V15.00,2014-08-29 07:32:00,
2014-08-29 02:33:00,68.0,56.7,17.72,ESE,114,0.0,4.0,67,0.00,,---,0.00,VWS V15.00,2014-08-29 07:33:00,
2014-08-29 02:34:00,68.0,56.7,17.72,ENE,78,0.0,3.6,67,0.00,,---,0.00,VWS V15.00,2014-08-29 07:34:00,
2014-08-29 02:35:00,68.0,56.7,17.72,NE,40,0.0,3.6,67,0.00,,---,0.00,VWS V15.00,2014-08-29 07:35:00,
2014-08-29 02:37:00,68.0,56.7,17.72,ESE,105,3.6,3.6,67,0.00,,---,0.00,VWS V15.00,2014-08-29 07:37:00,
2014-08-29 02:38:00,68.0,56.7,17.72,North,0,0.0,0.0,67,0.00,,---,0.00,VWS V15.00,2014-08-29 07:38:00,
2014-08-29 02:39:00,68.0,56.7,17.72,ESE,123,4.0,4.0,67,0.00,,---,0.00,VWS V15.00,2014-08-29 07:39:00,
2014-08-29 02:40:00,67.8,56.9,17.72,SSW,201,2.2,4.9,68,0.00,,---,0.00,VWS V15.00,2014-08-29 07:40:00,
2014-08-29 02:41:00,67.8,56.9,17.72,SSW,201,0.0,0.0,68,0.00,,---,0.00,VWS V15.00,2014-08-29 07:41:00,
2014-08-29 02:42:00,68.0,56.7,17.72,SSE,161,0.0,0.0,67,0.00,,---,0.00,VWS V15.00,2014-08-29 07:42:00,
2014-08-29 02:43:00,67.8,56.9,17.72,South,170,0.0,0.0,68,0.00,,---,0.00,VWS V15.00,2014-08-29 07:43:00,
2014-08-29 02:44:00,67.8,56.9,17.72,East,85,0.0,2.7,68,0.00,,---,0.00,VWS V15.00,2014-08-29 07:44:00,
2014-08-29 02:46:00,67.8,56.9,17.72,East,85,0.0,0.0,68,0.00,,---,0.00,VWS V15.00,2014-08-29 07:46:00,
2014-08-29 02:47:00,67.8,56.9,17.72,SE,128,0.0,2.7,68,0.00,,---,0.00,VWS V15.00,2014-08-29 07:47:00,
2014-08-29 02:48:00,67.8,56.9,17.72,East,97,0.0,2.7,68,0.00,,---,0.00,VWS V15.00,2014-08-29 07:48:00,
2014-08-29 02:49:00,67.8,56.9,17.72,SSE,168,0.0,0.0,68,0.00,,---,0.00,VWS V15.00,2014-08-29 07:49:00,
2014-08-29 02:51:00,67.8,56.9,17.72,South,184,0.0,0.0,68,0.00,,---,0.00,VWS V15.00,2014-08-29 07:51:00,
2014-08-29 02:53:00,67.8,56.9,17.72,SSE,162,0.0,0.0,68,0.00,,---,0.00,VWS V15.00,2014-08-29 07:53:00,
2014-08-29 02:54:00,67.8,56.9,17.72,ESE,109,2.7,2.7,68,0.00,,---,0.00,VWS V15.00,2014-08-29 07:54:00,
2014-08-29 02:55:00,67.8,56.9,17.72,ESE,115,2.2,2.7,68,0.00,,---,0.00,VWS V15.00,2014-08-29 07:55:00,
2014-08-29 02:56:00,67.8,56.9,17.72,SE,146,0.0,2.2,68,0.00,,---,0.00,VWS V15.00,2014-08-29 07:56:00,
2014-08-29 02:58:00,67.8,56.9,17.72,East,89,0.0,0.0,68,0.00,,---,0.00,VWS V15.00,2014-08-29 07:58:00,
2014-08-29 02:59:00,67.8,56.9,17.72,SSW,204,0.0,0.0,68,0.00,,---,0.00,VWS V15.00,2014-08-29 07:59:00,
2014-08-29 03:00:00,67.8,56.9,17.72,SE,141,0.0,0.0,68,0.00,,---,0.00,VWS V15.00,2014-08-29 08:00:00,
2014-08-29 03:01:00,67.8,56.9,17.72,ENE,62,0.0,0.0,68,0.00,,---,0.00,VWS V15.00,2014-08-29 08:01:00,
2014-08-29 03:03:00,67.6,56.7,17.72,East,79,0.0,0.0,68,0.00,,---,0.00,VWS V15.00,2014-08-29 08:03:00,
2014-08-29 03:04:00,67.6,56.7,17.72,East,85,0.0,0.0,68,0.00,,---,0.00,VWS V15.00,2014-08-29 08:04:00,
2014-08-29 03:05:00,67.6,56.7,17.72,ESE,111,3.6,5.4,68,0.00,,---,0.00,VWS V15.00,2014-08-29 08:05:00,
2014-08-29 03:06:00,67.6,56.7,17.72,ESE,114,0.0,0.0,68,0.00,,---,0.00,VWS V15.00,2014-08-29 08:06:00,
2014-08-29 03:08:00,67.6,56.7,17.72,ESE,113,0.0,0.0,68,0.00,,---,0.00,VWS V15.00,2014-08-29 08:08:00,
2014-08-29 03:09:00,67.5,56.5,17.72,SE,126,0.0,2.7,68,0.00,,---,0.00,VWS V15.00,2014-08-29 08:09:00,
2014-08-29 03:10:00,67.5,56.5,17.72,SE,126,0.0,0.0,68,0.00,,---,0.00,VWS V15.00,2014-08-29 08:10:00,
2014-08-29 03:11:00,67.5,56.5,17.72,ESE,106,0.0,0.0,68,0.00,,---,0.00,VWS V15.00,2014-08-29 08:11:00,
2014-08-29 03:12:00,67.5,56.5,17.72,ESE,106,0.0,0.0,68,0.00,,---,0.00,VWS V15.00,2014-08-29 08:12:00,
2014-08-29 03:13:00,67.5,56.5,17.72,ESE,104,0.0,0.0,68,0.00,,---,0.00,VWS V15.00,2014-08-29 08:13:00,
2014-08-29 03:15:00,67.5,56.5,17.72,North,10,2.2,3.6,68,0.00,,---,0.00,VWS V15.00,2014-08-29 08:15:00,
2014-08-29 03:17:00,67.5,56.5,17.72,East,89,0.0,0.0,68,0.00,,---,0.00,VWS V15.00,2014-08-29 08:17:00,
2014-08-29 03:18:00,67.5,56.5,17.72,ESE,120,0.0,0.0,68,0.00,,---,0.00,VWS V15.00,2014-08-29 08:18:00,
2014-08-29 03:19:00,67.3,56.4,17.72,ENE,72,0.0,0.0,68,0.00,,---,0.00,VWS V15.00,2014-08-29 08:19:00,
2014-08-29 03:20:00,67.3,56.4,17.72,East,93,4.0,4.0,68,0.00,,---,0.00,VWS V15.00,2014-08-29 08:20:00,
2014-08-29 03:22:00,67.3,56.4,17.72,ESE,108,0.0,0.0,68,0.00,,---,0.00,VWS V15.00,2014-08-29 08:22:00,
2014-08-29 03:23:00,67.3,56.4,17.72,SE,146,0.0,0.0,68,0.00,,---,0.00,VWS V15.00,2014-08-29 08:23:00,
2014-08-29 03:24:00,67.3,56.4,17.72,SE,146,0.0,0.0,68,0.00,,---,0.00,VWS V15.00,2014-08-29 08:24:00,
2014-08-29 03:25:00,67.3,56.4,17.72,ESE,113,0.0,3.1,68,0.00,,---,0.00,VWS V15.00,2014-08-29 08:25:00,
2014-08-29 03:26:00,67.3,56.4,17.72,NE,56,0.0,3.1,68,0.00,,---,0.00,VWS V15.00,2014-08-29 08:26:00,
2014-08-29 03:27:00,67.3,56.4,17.72,ESE,106,0.0,0.0,68,0.00,,---,0.00,VWS V15.00,2014-08-29 08:27:00,
2014-08-29 03:28:00,67.1,56.2,17.72,South,183,0.0,0.0,68,0.00,,---,0.00,VWS V15.00,2014-08-29 08:28:00,
2014-08-29 03:29:00,67.1,56.2,17.72,South,182,0.0,0.0,68,0.00,,---,0.00,VWS V15.00,2014-08-29 08:29:00,
2014-08-29 03:30:00,67.1,56.2,17.72,SE,127,0.0,0.0,68,0.00,,---,0.00,VWS V15.00,2014-08-29 08:30:00,
2014-08-29 03:31:00,67.1,56.2,17.72,ESE,112,0.0,3.6,68,0.00,,---,0.00,VWS V15.00,2014-08-29 08:31:00,
2014-08-29 03:32:00,67.1,56.2,17.72,ENE,70,0.0,0.0,68,0.00,,---,0.00,VWS V15.00,2014-08-29 08:32:00,
2014-08-29 03:33:00,67.1,56.2,17.72,ENE,70,0.0,0.0,68,0.00,,---,0.00,VWS V15.00,2014-08-29 08:33:00,
2014-08-29 03:34:00,67.1,56.2,17.72,ESE,111,2.7,4.9,68,0.00,,---,0.00,VWS V15.00,2014-08-29 08:34:00,
2014-08-29 03:36:00,67.1,56.2,17.72,East,95,0.0,0.0,68,0.00,,---,0.00,VWS V15.00,2014-08-29 08:36:00,
2014-08-29 03:37:00,67.1,56.2,17.72,East,86,2.7,2.7,68,0.00,,---,0.00,VWS V15.00,2014-08-29 08:37:00,
2014-08-29 03:38:00,67.1,56.2,17.72,East,88,4.0,4.0,68,0.00,,---,0.00,VWS V15.00,2014-08-29 08:38:00,
2014-08-29 03:40:00,67.1,56.2,17.72,SSW,210,0.0,0.0,68,0.00,,---,0.00,VWS V15.00,2014-08-29 08:40:00,
2014-08-29 03:41:00,67.1,56.6,17.72,East,81,0.0,0.0,69,0.00,,---,0.00,VWS V15.00,2014-08-29 08:41:00,
2014-08-29 03:42:00,67.1,56.6,17.72,ENE,73,0.0,3.1,69,0.00,,---,0.00,VWS V15.00,2014-08-29 08:42:00,
2014-08-29 03:43:00,67.1,56.6,17.72,ENE,73,0.0,3.1,69,0.00,,---,0.00,VWS V15.00,2014-08-29 08:43:00,
2014-08-29 03:44:00,67.1,56.6,17.72,ESE,118,0.0,0.0,69,0.00,,---,0.00,VWS V15.00,2014-08-29 08:44:00,
2014-08-29 03:45:00,67.1,56.6,17.72,ESE,114,3.6,3.6,69,0.00,,---,0.00,VWS V15.00,2014-08-29 08:45:00,
2014-08-29 03:46:00,67.1,56.6,17.72,ESE,105,0.0,0.0,69,0.00,,---,0.00,VWS V15.00,2014-08-29 08:46:00,
2014-08-29 03:48:00,67.1,56.6,17.72,ESE,102,3.1,4.0,69,0.00,,---,0.00,VWS V15.00,2014-08-29 08:48:00,
2014-08-29 03:49:00,67.1,56.6,17.72,NNE,19,0.0,0.0,69,0.00,,---,0.00,VWS V15.00,2014-08-29 08:49:00,
2014-08-29 03:50:00,66.9,56.4,17.72,NNE,19,0.0,0.0,69,0.00,,---,0.00,VWS V15.00,2014-08-29 08:50:00,
2014-08-29 03:51:00,66.9,56.4,17.72,ESE,106,0.0,0.0,69,0.00,,---,0.00,VWS V15.00,2014-08-29 08:51:00,
2014-08-29 03:53:00,66.9,56.4,17.72,SE,141,0.0,2.7,69,0.00,,---,0.00,VWS V15.00,2014-08-29 08:53:00,
2014-08-29 03:54:00,66.9,56.4,17.72,ENE,77,0.0,0.0,69,0.00,,---,0.00,VWS V15.00,2014-08-29 08:54:00,
2014-08-29 03:56:00,66.9,56.4,17.72,East,82,0.0,0.0,69,0.00,,---,0.00,VWS V15.00,2014-08-29 08:56:00,
2014-08-29 03:57:00,66.9,56.4,17.72,East,99,3.1,3.1,69,0.00,,---,0.00,VWS V15.00,2014-08-29 08:57:00,
2014-08-29 03:58:00,66.9,56.4,17.72,East,81,0.0,0.0,69,0.00,,---,0.00,VWS V15.00,2014-08-29 08:58:00,
2014-08-29 03:59:00,66.9,56.4,17.72,NE,56,0.0,0.0,69,0.00,,---,0.00,VWS V15.00,2014-08-29 08:59:00,
2014-08-29 04:00:00,66.9,56.4,17.72,SSE,160,0.0,0.0,69,0.00,,---,0.00,VWS V15.00,2014-08-29 09:00:00,
2014-08-29 04:01:00,66.9,56.4,17.72,SSE,163,0.0,0.0,69,0.00,,---,0.00,VWS V15.00,2014-08-29 09:01:00,
2014-08-29 04:02:00,66.7,56.3,17.72,South,188,0.0,0.0,69,0.00,,---,0.00,VWS V15.00,2014-08-29 09:02:00,
2014-08-29 04:04:00,66.7,56.3,17.72,East,100,2.2,4.0,69,0.00,,---,0.00,VWS V15.00,2014-08-29 09:04:00,
2014-08-29 04:05:00,66.7,56.3,17.72,ESE,113,0.0,0.0,69,0.00,,---,0.00,VWS V15.00,2014-08-29 09:05:00,
2014-08-29 04:06:00,66.7,56.3,17.72,East,98,0.0,0.0,69,0.00,,---,0.00,VWS V15.00,2014-08-29 09:06:00,
2014-08-29 04:07:00,66.7,56.3,17.72,East,92,0.0,0.0,69,0.00,,---,0.00,VWS V15.00,2014-08-29 09:07:00,
2014-08-29 04:09:00,66.7,56.3,17.72,ESE,118,0.0,0.0,69,0.00,,---,0.00,VWS V15.00,2014-08-29 09:09:00,
2014-08-29 04:10:00,66.7,56.3,17.72,ESE,118,0.0,0.0,69,0.00,,---,0.00,VWS V15.00,2014-08-29 09:10:00,
2014-08-29 04:11:00,66.7,56.3,17.72,East,82,0.0,0.0,69,0.00,,---,0.00,VWS V15.00,2014-08-29 09:11:00,
2014-08-29 04:12:00,66.7,56.3,17.72,East,82,0.0,0.0,69,0.00,,---,0.00,VWS V15.00,2014-08-29 09:12:00,
2014-08-29 04:15:00,66.6,56.1,17.72,East,88,0.0,2.7,69,0.00,,---,0.00,VWS V15.00,2014-08-29 09:15:00,
2014-08-29 04:16:00,66.6,56.1,17.72,ESE,103,0.0,2.7,69,0.00,,---,0.00,VWS V15.00,2014-08-29 09:16:00,
2014-08-29 04:18:00,66.6,56.1,17.72,ESE,121,0.0,0.0,69,0.00,,---,0.00,VWS V15.00,2014-08-29 09:18:00,
2014-08-29 04:20:00,66.6,56.1,17.72,SE,136,0.0,0.0,69,0.00,,---,0.00,VWS V15.00,2014-08-29 09:20:00,
2014-08-29 04:21:00,66.6,56.1,17.72,SW,231,0.0,0.0,69,0.00,,---,0.00,VWS V15.00,2014-08-29 09:21:00,
2014-08-29 04:23:00,66.4,55.9,17.72,ESE,120,0.0,0.0,69,0.00,,---,0.00,VWS V15.00,2014-08-29 09:23:00,
2014-08-29 04:25:00,66.4,55.9,17.72,ESE,109,0.0,0.0,69,0.00,,---,0.00,VWS V15.00,2014-08-29 09:25:00,
2014-08-29 04:26:00,66.4,55.9,17.72,East,93,0.0,2.2,69,0.00,,---,0.00,VWS V15.00,2014-08-29 09:26:00,
2014-08-29 04:27:00,66.4,55.9,17.72,East,100,0.0,0.0,69,0.00,,---,0.00,VWS V15.00,2014-08-29 09:27:00,
2014-08-29 04:28:00,66.4,55.9,17.72,East,98,0.0,2.2,69,0.00,,---,0.00,VWS V15.00,2014-08-29 09:28:00,
2014-08-29 04:30:00,66.4,55.9,17.72,East,98,0.0,0.0,69,0.00,,---,0.00,VWS V15.00,2014-08-29 09:30:00,
2014-08-29 04:31:00,66.4,55.9,17.72,East,98,0.0,0.0,69,0.00,,---,0.00,VWS V15.00,2014-08-29 09:31:00,
2014-08-29 04:32:00,66.4,55.9,17.72,SE,138,0.0,0.0,69,0.00,,---,0.00,VWS V15.00,2014-08-29 09:32:00,
2014-08-29 04:33:00,66.4,55.9,17.72,SE,138,0.0,0.0,69,0.00,,---,0.00,VWS V15.00,2014-08-29 09:33:00,
2014-08-29 04:34:00,66.2,55.7,17.72,East,98,0.0,0.0,69,0.00,,---,0.00,VWS V15.00,2014-08-29 09:34:00,
2014-08-29 04:36:00,66.2,55.7,17.72,ESE,107,2.2,2.2,69,0.00,,---,0.00,VWS V15.00,2014-08-29 09:36:00,
2014-08-29 04:37:00,66.2,55.7,17.72,East,89,3.1,3.1,69,0.00,,---,0.00,VWS V15.00,2014-08-29 09:37:00,
2014-08-29 04:38:00,66.2,55.7,17.72,East,85,0.0,3.6,69,0.00,,---,0.00,VWS V15.00,2014-08-29 09:38:00,
2014-08-29 04:39:00,66.2,56.1,17.72,ESE,110,2.7,2.7,70,0.00,,---,0.00,VWS V15.00,2014-08-29 09:39:00,
2014-08-29 04:41:00,66.2,56.1,17.72,ESE,114,0.0,0.0,70,0.00,,---,0.00,VWS V15.00,2014-08-29 09:41:00,
2014-08-29 04:42:00,66.2,56.1,17.72,ESE,108,0.0,2.2,70,0.00,,---,0.00,VWS V15.00,2014-08-29 09:42:00,
2014-08-29 04:43:00,66.2,56.1,17.72,ESE,116,3.6,3.6,70,0.00,,---,0.00,VWS V15.00,2014-08-29 09:43:00,
2014-08-29 04:44:00,66.2,56.1,17.72,East,97,4.0,4.0,70,0.00,,---,0.00,VWS V15.00,2014-08-29 09:44:00,
2014-08-29 04:46:00,66.2,55.7,17.72,NE,39,0.0,0.0,69,0.00,,---,0.00,VWS V15.00,2014-08-29 09:46:00,
2014-08-29 04:47:00,66.2,55.7,17.72,ESE,115,0.0,3.6,69,0.00,,---,0.00,VWS V15.00,2014-08-29 09:47:00,
2014-08-29 04:48:00,66.2,55.7,17.72,ESE,115,0.0,3.6,69,0.00,,---,0.00,VWS V15.00,2014-08-29 09:48:00,
2014-08-29 04:49:00,66.2,55.7,17.72,East,99,4.5,4.5,69,0.00,,---,0.00,VWS V15.00,2014-08-29 09:49:00,
2014-08-29 04:51:00,66.2,55.7,17.72,NE,40,0.0,0.0,69,0.00,,---,0.00,VWS V15.00,2014-08-29 09:51:00,
2014-08-29 04:52:00,66.2,55.7,17.72,East,92,0.0,0.0,69,0.00,,---,0.00,VWS V15.00,2014-08-29 09:52:00,
2014-08-29 04:53:00,66.2,55.7,17.72,East,92,0.0,0.0,69,0.00,,---,0.00,VWS V15.00,2014-08-29 09:53:00,
2014-08-29 04:54:00,66.2,55.7,17.72,South,170,3.6,4.9,69,0.00,,---,0.00,VWS V15.00,2014-08-29 09:54:00,
2014-08-29 04:57:00,66.2,55.7,17.72,SE,131,0.0,0.0,69,0.00,,---,0.00,VWS V15.00,2014-08-29 09:57:00,
2014-08-29 04:58:00,66.2,55.7,17.72,SE,138,0.0,0.0,69,0.00,,---,0.00,VWS V15.00,2014-08-29 09:58:00,
2014-08-29 04:59:00,66.2,55.7,17.72,ESE,108,0.0,0.0,69,0.00,,---,0.00,VWS V15.00,2014-08-29 09:59:00,
2014-08-29 05:00:00,66.2,55.7,17.72,East,93,0.0,0.0,69,0.00,,---,0.00,VWS V15.00,2014-08-29 10:00:00,
2014-08-29 05:02:00,66.2,55.7,17.72,SE,143,0.0,0.0,69,0.00,,---,0.00,VWS V15.00,2014-08-29 10:02:00,
2014-08-29 05:03:00,66.2,55.7,17.72,ESE,117,0.0,0.0,69,0.00,,---,0.00,VWS V15.00,2014-08-29 10:03:00,
2014-08-29 05:04:00,66.2,55.7,17.72,SSE,159,0.0,0.0,69,0.00,,---,0.00,VWS V15.00,2014-08-29 10:04:00,
2014-08-29 05:05:00,66.2,55.7,17.72,SE,139,3.6,3.6,69,0.00,,---,0.00,VWS V15.00,2014-08-29 10:05:00,
2014-08-29 05:06:00,66.0,56.0,17.72,SSE,149,0.0,4.0,70,0.00,,---,0.00,VWS V15.00,2014-08-29 10:06:00,
2014-08-29 05:07:00,66.0,56.0,17.72,ESE,110,0.0,3.6,70,0.00,,---,0.00,VWS V15.00,2014-08-29 10:07:00,
2014-08-29 05:08:00,66.0,56.0,17.72,SSE,160,3.6,3.6,70,0.00,,---,0.00,VWS V15.00,2014-08-29 10:08:00,
2014-08-29 05:09:00,66.2,55.7,17.72,East,99,0.0,0.0,69,0.00,,---,0.00,VWS V15.00,2014-08-29 10:09:00,
2014-08-29 05:11:00,66.2,55.7,17.72,ESE,111,0.0,3.1,69,0.00,,---,0.00,VWS V15.00,2014-08-29 10:11:00,
2014-08-29 05:12:00,66.2,55.7,17.72,ENE,76,0.0,0.0,69,0.00,,---,0.00,VWS V15.00,2014-08-29 10:12:00,
2014-08-29 05:13:00,66.2,55.7,17.72,East,98,3.6,3.6,69,0.00,,---,0.00,VWS V15.00,2014-08-29 10:13:00,
2014-08-29 05:16:00,66.2,55.7,17.72,ESE,120,0.0,0.0,69,0.00,,---,0.00,VWS V15.00,2014-08-29 10:16:00,
2014-08-29 05:18:00,66.0,56.0,17.72,ESE,112,0.0,3.1,70,0.00,,---,0.00,VWS V15.00,2014-08-29 10:18:00,
2014-08-29 05:19:00,66.0,56.0,17.72,ESE,112,0.0,0.0,70,0.00,,---,0.00,VWS V15.00,2014-08-29 10:19:00,
2014-08-29 05:21:00,66.0,56.0,17.72,ESE,107,0.0,0.0,70,0.00,,---,0.00,VWS V15.00,2014-08-29 10:21:00,
2014-08-29 05:23:00,66.0,56.0,17.72,East,92,0.0,3.1,70,0.00,,---,0.00,VWS V15.00,2014-08-29 10:23:00,
2014-08-29 05:24:00,66.0,56.0,17.72,SSE,150,0.0,3.1,70,0.00,,---,0.00,VWS V15.00,2014-08-29 10:24:00,
2014-08-29 05:26:00,66.0,56.0,17.72,ESE,116,0.0,0.0,70,0.00,,---,0.00,VWS V15.00,2014-08-29 10:26:00,
2014-08-29 05:28:00,66.0,56.0,17.72,East,86,0.0,0.0,70,0.00,,---,0.00,VWS V15.00,2014-08-29 10:28:00,
2014-08-29 05:29:00,66.0,56.0,17.72,ENE,71,0.0,0.0,70,0.00,,---,0.00,VWS V15.00,2014-08-29 10:29:00,
2014-08-29 05:30:00,66.0,56.0,17.72,ESE,112,3.1,3.1,70,0.00,,---,0.00,VWS V15.00,2014-08-29 10:30:00,
2014-08-29 05:32:00,65.8,55.8,17.72,East,97,2.2,2.2,70,0.00,,---,0.00,VWS V15.00,2014-08-29 10:32:00,
2014-08-29 05:34:00,65.8,55.8,17.72,SSW,208,0.0,0.0,70,0.00,,---,0.00,VWS V15.00,2014-08-29 10:34:00,
2014-08-29 05:35:00,65.8,55.8,17.72,East,99,0.0,0.0,70,0.00,,---,0.00,VWS V15.00,2014-08-29 10:35:00,
2014-08-29 05:37:00,65.8,55.8,17.72,East,82,0.0,0.0,70,0.00,,---,0.00,VWS V15.00,2014-08-29 10:37:00,
2014-08-29 05:39:00,65.8,55.8,17.72,NNE,25,0.0,0.0,70,0.00,,---,0.00,VWS V15.00,2014-08-29 10:39:00,
2014-08-29 05:40:00,65.8,55.8,17.72,East,92,2.2,2.7,70,0.00,,---,0.00,VWS V15.00,2014-08-29 10:40:00,
2014-08-29 05:42:00,65.8,55.8,17.72,SE,143,0.0,0.0,70,0.00,,---,0.00,VWS V15.00,2014-08-29 10:42:00,
2014-08-29 05:43:00,65.8,55.8,17.72,SE,131,0.0,0.0,70,0.00,,---,0.00,VWS V15.00,2014-08-29 10:43:00,
2014-08-29 05:44:00,65.8,55.8,17.72,East,93,0.0,0.0,70,0.00,,---,0.00,VWS V15.00,2014-08-29 10:44:00,
2014-08-29 05:45:00,65.8,55.8,17.72,East,99,0.0,3.1,70,0.00,,---,0.00,VWS V15.00,2014-08-29 10:45:00,
2014-08-29 05:47:00,65.8,55.8,17.72,ESE,108,0.0,0.0,70,0.00,,---,0.00,VWS V15.00,2014-08-29 10:47:00,
2014-08-29 05:48:00,65.8,55.8,17.72,SSE,156,0.0,0.0,70,0.00,,---,0.00,VWS V15.00,2014-08-29 10:48:00,
2014-08-29 05:49:00,65.7,55.6,17.72,ESE,117,0.0,0.0,70,0.00,,---,0.00,VWS V15.00,2014-08-29 10:49:00,
2014-08-29 05:50:00,65.8,55.8,17.72,SSE,150,0.0,0.0,70,0.00,,---,0.00,VWS V15.00,2014-08-29 10:50:00,
2014-08-29 05:51:00,65.7,55.6,17.72,South,172,0.0,0.0,70,0.00,,---,0.00,VWS V15.00,2014-08-29 10:51:00,
2014-08-29 05:52:00,65.7,55.6,17.72,ENE,67,0.0,3.1,70,0.00,,---,0.00,VWS V15.00,2014-08-29 10:52:00,
2014-08-29 05:53:00,65.7,55.6,17.72,East,101,0.0,2.7,70,0.00,,---,0.00,VWS V15.00,2014-08-29 10:53:00,
2014-08-29 05:54:00,65.8,55.8,17.72,East,91,0.0,2.7,70,0.00,,---,0.00,VWS V15.00,2014-08-29 10:54:00,
2014-08-29 05:55:00,65.8,55.8,17.72,ESE,107,0.0,2.7,70,0.00,,---,0.00,VWS V15.00,2014-08-29 10:55:00,
2014-08-29 05:56:00,65.8,55.8,17.72,SE,127,0.0,2.7,70,0.00,,---,0.00,VWS V15.00,2014-08-29 10:56:00,
2014-08-29 05:57:00,65.7,55.6,17.72,ESE,107,3.6,4.9,70,0.00,,---,0.00,VWS V15.00,2014-08-29 10:57:00,
2014-08-29 05:58:00,65.8,55.8,17.72,ESE,103,0.0,3.6,70,0.00,,---,0.00,VWS V15.00,2014-08-29 10:58:00,
2014-08-29 05:59:00,65.8,55.8,17.72,ESE,112,0.0,2.2,70,0.00,,---,0.00,VWS V15.00,2014-08-29 10:59:00,
2014-08-29 06:00:00,65.8,55.8,17.72,ESE,112,0.0,2.2,70,0.00,,---,0.00,VWS V15.00,2014-08-29 11:00:00,
2014-08-29 06:01:00,65.7,55.6,17.72,SSE,152,0.0,0.0,70,0.00,,---,0.00,VWS V15.00,2014-08-29 11:01:00,
2014-08-29 06:03:00,65.7,55.6,17.72,East,82,0.0,0.0,70,0.00,,---,0.00,VWS V15.00,2014-08-29 11:03:00,
2014-08-29 06:04:00,65.7,55.2,17.72,ESE,102,5.8,5.8,69,0.00,,---,0.00,VWS V15.00,2014-08-29 11:04:00,
2014-08-29 06:05:00,65.7,55.2,17.72,ESE,103,0.0,5.8,69,0.00,,---,0.00,VWS V15.00,2014-08-29 11:05:00,
2014-08-29 06:06:00,65.7,55.2,17.72,ESE,120,3.1,3.1,69,0.00,,---,0.00,VWS V15.00,2014-08-29 11:06:00,
2014-08-29 06:08:00,65.8,55.4,17.72,SE,135,4.5,4.9,69,0.00,,---,0.00,VWS V15.00,2014-08-29 11:08:00,
2014-08-29 06:10:00,65.8,55.4,17.72,ESE,112,0.0,0.0,69,0.00,,---,0.00,VWS V15.00,2014-08-29 11:10:00,
2014-08-29 06:11:00,65.8,55.4,17.72,ESE,115,0.0,2.7,69,0.00,,---,0.00,VWS V15.00,2014-08-29 11:11:00,
2014-08-29 06:14:00,65.8,55.4,17.72,ESE,108,0.0,3.1,69,0.00,,---,0.00,VWS V15.00,2014-08-29 11:14:00,
2014-08-29 06:15:00,65.8,55.4,17.72,East,98,0.0,0.0,69,0.00,,---,0.00,VWS V15.00,2014-08-29 11:15:00,
2014-08-29 06:16:00,65.8,55.4,17.72,East,98,0.0,0.0,69,0.00,,---,0.00,VWS V15.00,2014-08-29 11:16:00,
2014-08-29 06:17:00,65.8,55.4,17.72,SE,129,0.0,0.0,69,0.00,,---,0.00,VWS V15.00,2014-08-29 11:17:00,
2014-08-29 06:19:00,65.8,55.4,17.72,SSW,212,2.7,2.7,69,0.00,,---,0.00,VWS V15.00,2014-08-29 11:19:00,
2014-08-29 06:20:00,65.8,55.4,17.72,SSE,162,0.0,0.0,69,0.00,,---,0.00,VWS V15.00,2014-08-29 11:20:00,
2014-08-29 06:21:00,65.8,55.4,17.72,SSE,155,0.0,0.0,69,0.00,,---,0.00,VWS V15.00,2014-08-29 11:21:00,
2014-08-29 06:22:00,65.8,55.4,17.72,SSE,162,0.0,3.1,69,0.00,,---,0.00,VWS V15.00,2014-08-29 11:22:00,
2014-08-29 06:23:00,65.8,55.4,17.72,SSW,192,0.0,3.1,69,0.00,,---,0.00,VWS V15.00,2014-08-29 11:23:00,
2014-08-29 06:24:00,65.8,55.4,17.72,North,4,0.0,0.0,69,0.00,,---,0.00,VWS V15.00,2014-08-29 11:24:00,
2014-08-29 06:25:00,65.8,55.4,17.72,SE,128,0.0,0.0,69,0.00,,---,0.00,VWS V15.00,2014-08-29 11:25:00,
2014-08-29 06:26:00,65.8,55.4,17.72,East,87,0.0,0.0,69,0.00,,---,0.00,VWS V15.00,2014-08-29 11:26:00,
2014-08-29 06:28:00,65.8,55.4,17.72,ESE,108,0.0,4.9,69,0.00,,---,0.00,VWS V15.00,2014-08-29 11:28:00,
2014-08-29 06:30:00,65.8,55.4,17.72,SE,127,0.0,0.0,69,0.00,,---,0.00,VWS V15.00,2014-08-29 11:30:00,
2014-08-29 06:31:00,65.8,55.4,17.72,SW,219,0.0,0.0,69,0.00,,---,0.00,VWS V15.00,2014-08-29 11:31:00,
2014-08-29 06:33:00,66.0,55.6,17.72,ESE,110,0.0,0.0,69,0.00,,---,0.00,VWS V15.00,2014-08-29 11:33:00,
2014-08-29 06:35:00,66.0,55.6,17.72,East,93,0.0,0.0,69,0.00,,---,0.00,VWS V15.00,2014-08-29 11:35:00,
2014-08-29 06:36:00,66.0,55.6,17.72,South,178,0.0,0.0,69,0.00,,---,0.00,VWS V15.00,2014-08-29 11:36:00,
2014-08-29 06:37:00,66.0,55.6,17.72,South,178,0.0,0.0,69,0.00,,---,0.00,VWS V15.00,2014-08-29 11:37:00,
2014-08-29 06:38:00,66.0,55.6,17.72,South,178,0.0,0.0,69,0.00,,---,0.00,VWS V15.00,2014-08-29 11:38:00,
2014-08-29 06:40:00,66.0,55.6,17.72,SSE,154,0.0,0.0,69,0.00,,---,0.00,VWS V15.00,2014-08-29 11:40:00,
2014-08-29 06:41:00,66.0,55.6,17.72,South,173,0.0,0.0,69,0.00,,---,0.00,VWS V15.00,2014-08-29 11:41:00,
2014-08-29 06:42:00,66.0,55.6,17.72,South,184,0.0,0.0,69,0.00,,---,0.00,VWS V15.00,2014-08-29 11:42:00,
2014-08-29 06:43:00,66.0,55.6,17.72,SW,231,0.0,0.0,69,0.00,,---,0.00,VWS V15.00,2014-08-29 11:43:00,
2014-08-29 06:45:00,66.0,55.6,17.72,East,101,0.0,0.0,69,0.00,,---,0.00,VWS V15.00,2014-08-29 11:45:00,
2014-08-29 06:46:00,66.2,55.7,17.72,ESE,115,0.0,0.0,69,0.00,,---,0.00,VWS V15.00,2014-08-29 11:46:00,
2014-08-29 06:47:00,66.2,55.7,17.72,SE,144,0.0,0.0,69,0.00,,---,0.00,VWS V15.00,2014-08-29 11:47:00,
2014-08-29 06:48:00,66.2,55.7,17.72,SSE,153,0.0,0.0,69,0.00,,---,0.00,VWS V15.00,2014-08-29 11:48:00,
2014-08-29 06:49:00,66.2,55.7,17.72,ESE,111,0.0,0.0,69,0.00,,---,0.00,VWS V15.00,2014-08-29 11:49:00,
2014-08-29 06:50:00,66.2,55.3,17.72,SE,125,2.7,3.6,68,0.00,,---,0.00,VWS V15.00,2014-08-29 11:50:00,
2014-08-29 06:52:00,66.4,55.5,17.72,East,99,0.0,0.0,68,0.00,,---,0.00,VWS V15.00,2014-08-29 11:52:00,
2014-08-29 06:53:00,66.4,55.5,17.72,SE,133,0.0,0.0,68,0.00,,---,0.00,VWS V15.00,2014-08-29 11:53:00,
2014-08-29 06:54:00,66.4,55.5,17.72,ESE,112,0.0,0.0,68,0.00,,---,0.00,VWS V15.00,2014-08-29 11:54:00,
2014-08-29 06:55:00,66.4,55.9,17.72,East,86,0.0,0.0,69,0.00,,---,0.00,VWS V15.00,2014-08-29 11:55:00,
2014-08-29 06:57:00,66.6,55.7,17.72,ENE,74,0.0,0.0,68,0.00,,---,0.00,VWS V15.00,2014-08-29 11:57:00,
2014-08-29 06:58:00,66.6,55.7,17.72,South,172,0.0,3.6,68,0.00,,---,0.00,VWS V15.00,2014-08-29 11:58:00,
2014-08-29 06:59:00,66.6,55.7,17.72,ESE,112,0.0,2.7,68,0.00,,---,0.00,VWS V15.00,2014-08-29 11:59:00,
2014-08-29 07:00:00,66.6,55.7,17.72,East,97,0.0,0.0,68,0.00,,---,0.00,VWS V15.00,2014-08-29 12:00:00,
2014-08-29 07:02:00,66.7,55.8,17.72,ESE,111,0.0,2.2,68,0.00,,---,0.00,VWS V15.00,2014-08-29 12:02:00,
2014-08-29 07:04:00,66.7,55.8,17.72,SSW,195,0.0,0.0,68,0.00,,---,0.00,VWS V15.00,2014-08-29 12:04:00,
2014-08-29 07:05:00,66.9,56.0,17.72,South,169,0.0,0.0,68,0.00,,---,0.00,VWS V15.00,2014-08-29 12:05:00,
2014-08-29 07:07:00,66.9,56.0,17.72,SSE,147,0.0,0.0,68,0.00,,---,0.00,VWS V15.00,2014-08-29 12:07:00,
2014-08-29 07:09:00,67.1,56.2,17.72,SW,216,0.0,0.0,68,0.00,,---,0.00,VWS V15.00,2014-08-29 12:09:00,
2014-08-29 07:10:00,67.1,56.2,17.72,South,181,0.0,0.0,68,0.00,,---,0.00,VWS V15.00,2014-08-29 12:10:00,
2014-08-29 07:11:00,67.1,56.2,17.72,SE,129,0.0,0.0,68,0.00,,---,0.00,VWS V15.00,2014-08-29 12:11:00,
2014-08-29 07:12:00,67.3,56.4,17.72,SE,145,0.0,0.0,68,0.00,,---,0.00,VWS V15.00,2014-08-29 12:12:00,
2014-08-29 07:14:00,67.5,56.5,17.72,ESE,109,0.0,0.0,68,0.00,,---,0.00,VWS V15.00,2014-08-29 12:14:00,
2014-08-29 07:15:00,67.5,56.5,17.72,ESE,102,2.7,2.7,68,0.00,,---,0.00,VWS V15.00,2014-08-29 12:15:00,
2014-08-29 07:16:00,67.5,56.5,17.72,ESE,108,0.0,2.7,68,0.00,,---,0.00,VWS V15.00,2014-08-29 12:16:00,
2014-08-29 07:17:00,67.5,56.5,17.72,South,186,2.2,2.2,68,0.00,,---,0.00,VWS V15.00,2014-08-29 12:17:00,
2014-08-29 07:19:00,67.8,56.9,17.72,ESE,106,0.0,4.0,68,0.00,,---,0.00,VWS V15.00,2014-08-29 12:19:00,
2014-08-29 07:20:00,67.8,56.9,17.72,SE,125,0.0,4.0,68,0.00,,---,0.00,VWS V15.00,2014-08-29 12:20:00,
2014-08-29 07:21:00,67.8,56.9,17.72,NE,44,0.0,4.0,68,0.00,,---,0.00,VWS V15.00,2014-08-29 12:21:00,
2014-08-29 07:22:00,67.8,56.9,17.72,East,101,0.0,4.9,68,0.00,,---,0.00,VWS V15.00,2014-08-29 12:22:00,
2014-08-29 07:25:00,68.0,56.7,17.72,ESE,117,0.0,3.1,67,0.00,,---,0.00,VWS V15.00,2014-08-29 12:25:00,
2014-08-29 07:26:00,68.2,56.8,17.72,South,185,0.0,0.0,67,0.00,,---,0.00,VWS V15.00,2014-08-29 12:26:00,
2014-08-29 07:27:00,68.2,56.8,17.72,SE,126,2.7,5.4,67,0.00,,---,0.00,VWS V15.00,2014-08-29 12:27:00,
2014-08-29 07:28:00,68.2,56.8,17.72,SSE,162,0.0,3.6,67,0.00,,---,0.00,VWS V15.00,2014-08-29 12:28:00,
2014-08-29 07:30:00,68.4,57.0,17.72,SW,227,0.0,0.0,67,0.00,,---,0.00,VWS V15.00,2014-08-29 12:30:00,
2014-08-29 07:31:00,68.5,57.2,17.72,South,178,0.0,0.0,67,0.00,,---,0.00,VWS V15.00,2014-08-29 12:31:00,
2014-08-29 07:32:00,68.7,57.3,17.72,South,191,0.0,0.0,67,0.00,,---,0.00,VWS V15.00,2014-08-29 12:32:00,
2014-08-29 07:33:00,68.9,57.5,17.72,East,90,0.0,4.0,67,0.00,,---,0.00,VWS V15.00,2014-08-29 12:33:00,
2014-08-29 07:35:00,69.3,57.8,17.72,SSE,149,0.0,0.0,67,0.00,,---,0.00,VWS V15.00,2014-08-29 12:35:00,
2014-08-29 07:36:00,69.4,58.0,17.72,SSE,161,0.0,0.0,67,0.00,,---,0.00,VWS V15.00,2014-08-29 12:36:00,
2014-08-29 07:37:00,69.6,58.2,17.72,East,86,0.0,0.0,67,0.00,,---,0.00,VWS V15.00,2014-08-29 12:37:00,
2014-08-29 07:38:00,69.8,58.4,17.72,ENE,73,0.0,0.0,67,0.00,,---,0.00,VWS V15.00,2014-08-29 12:38:00,
2014-08-29 07:41:00,70.3,58.9,17.72,East,94,2.7,2.7,67,0.00,,---,0.00,VWS V15.00,2014-08-29 12:41:00,
2014-08-29 07:42:00,70.5,57.8,17.72,SSE,147,0.0,2.7,64,0.00,,---,0.00,VWS V15.00,2014-08-29 12:42:00,
2014-08-29 07:43:00,70.5,57.8,17.72,South,187,0.0,0.0,64,0.00,,---,0.00,VWS V15.00,2014-08-29 12:43:00,
2014-08-29 07:46:00,70.9,58.1,17.72,ESE,108,0.0,0.0,64,0.00,,---,0.00,VWS V15.00,2014-08-29 12:46:00,
2014-08-29 07:47:00,70.9,58.1,17.72,ESE,117,0.0,0.0,64,0.00,,---,0.00,VWS V15.00,2014-08-29 12:47:00,
2014-08-29 07:48:00,71.1,58.3,17.72,SSW,204,0.0,0.0,64,0.00,,---,0.00,VWS V15.00,2014-08-29 12:48:00,
2014-08-29 07:49:00,71.2,58.5,17.72,SW,220,3.1,5.4,64,0.00,,---,0.00,VWS V15.00,2014-08-29 12:49:00,
2014-08-29 07:51:00,71.6,58.8,17.72,South,180,0.0,0.0,64,0.00,,---,0.00,VWS V15.00,2014-08-29 12:51:00,
2014-08-29 07:52:00,71.6,58.8,17.72,ENE,73,0.0,0.0,64,0.00,,---,0.00,VWS V15.00,2014-08-29 12:52:00,
2014-08-29 07:53:00,71.8,59.0,17.72,NNW,328,0.0,2.2,64,0.00,,---,0.00,VWS V15.00,2014-08-29 12:53:00,
2014-08-29 07:54:00,72.0,59.1,17.72,SE,138,0.0,2.7,64,0.00,,---,0.00,VWS V15.00,2014-08-29 12:54:00,
2014-08-29 07:55:00,72.0,59.1,17.72,SSW,204,0.0,2.7,64,0.00,,---,0.00,VWS V15.00,2014-08-29 12:55:00,
2014-08-29 07:56:00,72.3,59.5,17.72,SSE,149,0.0,0.0,64,0.00,,---,0.00,VWS V15.00,2014-08-29 12:56:00,
2014-08-29 07:58:00,72.5,59.6,17.72,SSW,193,0.0,0.0,64,0.00,,---,0.00,VWS V15.00,2014-08-29 12:58:00,
2014-08-29 07:59:00,72.7,59.8,17.72,ENE,74,3.1,3.1,64,0.00,,---,0.00,VWS V15.00,2014-08-29 12:59:00,
2014-08-29 08:00:00,72.9,60.0,17.72,SSE,161,2.2,3.1,64,0.00,,---,0.00,VWS V15.00,2014-08-29 13:00:00,
2014-08-29 08:01:00,73.0,60.2,17.72,ESE,110,0.0,0.0,64,0.00,,---,0.00,VWS V15.00,2014-08-29 13:01:00,
2014-08-29 08:03:00,73.4,60.0,17.72,East,90,0.0,0.0,63,0.00,,---,0.00,VWS V15.00,2014-08-29 13:03:00,
2014-08-29 08:04:00,73.4,60.0,17.72,NNE,16,5.8,7.6,63,0.00,,---,0.00,VWS V15.00,2014-08-29 13:04:00,
2014-08-29 08:05:00,73.4,60.0,17.72,South,180,0.0,5.8,63,0.00,,---,0.00,VWS V15.00,2014-08-29 13:05:00,
2014-08-29 08:07:00,73.6,60.2,17.72,SSW,206,0.0,3.6,63,0.00,,---,0.00,VWS V15.00,2014-08-29 13:07:00,
2014-08-29 08:08:00,73.8,60.4,17.72,SSE,152,2.7,2.7,63,0.00,,---,0.00,VWS V15.00,2014-08-29 13:08:00,
2014-08-29 08:09:00,73.9,60.6,17.72,SSW,198,2.2,3.6,63,0.00,,---,0.00,VWS V15.00,2014-08-29 13:09:00,
2014-08-29 08:10:00,73.9,60.6,17.72,SE,127,2.7,4.9,63,0.00,,---,0.00,VWS V15.00,2014-08-29 13:10:00,
2014-08-29 08:12:00,74.3,60.9,17.72,South,180,0.0,0.0,63,0.00,,---,0.00,VWS V15.00,2014-08-29 13:12:00,
2014-08-29 08:13:00,74.7,61.2,17.72,South,171,0.0,0.0,63,0.00,,---,0.00,VWS V15.00,2014-08-29 13:13:00,
2014-08-29 08:14:00,74.7,61.2,17.72,South,171,0.0,0.0,63,0.00,,---,0.00,VWS V15.00,2014-08-29 13:14:00,
2014-08-29 08:15:00,74.8,61.4,17.72,South,171,0.0,0.0,63,0.00,,---,0.00,VWS V15.00,2014-08-29 13:15:00,
2014-08-29 08:17:00,75.4,61.9,17.72,SE,129,0.0,0.0,63,0.00,,---,0.00,VWS V15.00,2014-08-29 13:17:00,
2014-08-29 08:18:00,75.6,62.1,17.72,South,174,0.0,0.0,63,0.00,,---,0.00,VWS V15.00,2014-08-29 13:18:00,
2014-08-29 08:20:00,75.7,62.3,17.72,South,190,0.0,0.0,63,0.00,,---,0.00,VWS V15.00,2014-08-29 13:20:00,
2014-08-29 08:21:00,75.9,62.4,17.72,East,100,3.6,4.9,63,0.00,,---,0.00,VWS V15.00,2014-08-29 13:21:00,
2014-08-29 08:23:00,75.7,62.3,17.72,SSW,213,0.0,5.4,63,0.00,,---,0.00,VWS V15.00,2014-08-29 13:23:00,
2014-08-29 08:24:00,75.6,62.1,17.72,ESE,117,0.0,0.0,63,0.00,,---,0.00,VWS V15.00,2014-08-29 13:24:00,
2014-08-29 08:25:00,75.6,62.1,17.72,SE,130,5.4,6.7,63,0.00,,---,0.00,VWS V15.00,2014-08-29 13:25:00,
2014-08-29 08:26:00,75.6,62.1,17.72,SE,133,3.1,6.7,63,0.00,,---,0.00,VWS V15.00,2014-08-29 13:26:00,
2014-08-29 08:29:00,75.4,61.9,17.72,ESE,120,2.2,3.6,63,0.00,,---,0.00,VWS V15.00,2014-08-29 13:29:00,
2014-08-29 08:31:00,75.4,61.9,17.72,ESE,113,0.0,2.2,63,0.00,,---,0.00,VWS V15.00,2014-08-29 13:31:00,
2014-08-29 08:32:00,75.6,62.1,17.72,SSE,150,3.1,3.1,63,0.00,,---,0.00,VWS V15.00,2014-08-29 13:32:00,
2014-08-29 08:34:00,75.7,62.3,17.72,South,187,2.2,4.5,63,0.00,,---,0.00,VWS V15.00,2014-08-29 13:34:00,
2014-08-29 08:35:00,75.7,62.3,17.72,SSW,209,0.0,0.0,63,0.00,,---,0.00,VWS V15.00,2014-08-29 13:35:00,
2014-08-29 08:36:00,75.9,62.4,17.72,SW,219,0.0,4.5,63,0.00,,---,0.00,VWS V15.00,2014-08-29 13:36:00,
2014-08-29 08:38:00,76.1,62.6,17.72,SSE,168,0.0,0.0,63,0.00,,---,0.00,VWS V15.00,2014-08-29 13:38:00,
2014-08-29 08:39:00,76.3,62.8,17.72,East,90,0.0,4.0,63,0.00,,---,0.00,VWS V15.00,2014-08-29 13:39:00,
2014-08-29 08:40:00,76.5,62.9,17.72,SW,214,0.0,0.0,63,0.00,,---,0.00,VWS V15.00,2014-08-29 13:40:00,
2014-08-29 08:42:00,76.6,63.1,17.72,SE,143,3.6,3.6,63,0.00,,---,0.00,VWS V15.00,2014-08-29 13:42:00,
2014-08-29 08:43:00,76.8,63.3,17.72,East,90,2.2,4.0,63,0.00,,---,0.00,VWS V15.00,2014-08-29 13:43:00,
2014-08-29 08:44:00,77.0,63.5,17.72,East,95,0.0,0.0,63,0.00,,---,0.00,VWS V15.00,2014-08-29 13:44:00,
2014-08-29 08:45:00,77.0,63.5,17.72,SE,132,3.1,3.1,63,0.00,,---,0.00,VWS V15.00,2014-08-29 13:45:00,
2014-08-29 08:47:00,77.4,63.8,17.72,SW,223,0.0,4.9,63,0.00,,---,0.00,VWS V15.00,2014-08-29 13:47:00,
2014-08-29 08:48:00,77.4,63.8,17.72,SSW,192,0.0,0.0,63,0.00,,---,0.00,VWS V15.00,2014-08-29 13:48:00,
2014-08-29 08:50:00,77.4,63.8,17.72,South,180,0.0,5.8,63,0.00,,---,0.00,VWS V15.00,2014-08-29 13:50:00,
2014-08-29 08:53:00,77.4,63.8,17.72,SE,138,0.0,3.1,63,0.00,,---,0.00,VWS V15.00,2014-08-29 13:53:00,
2014-08-29 08:55:00,77.5,64.0,17.72,ESE,105,0.0,0.0,63,0.00,,---,0.00,VWS V15.00,2014-08-29 13:55:00,
2014-08-29 08:56:00,77.5,64.0,17.72,SW,220,4.9,5.8,63,0.00,,---,0.00,VWS V15.00,2014-08-29 13:56:00,
2014-08-29 08:58:00,77.5,64.0,17.72,SSE,151,0.0,0.0,63,0.00,,---,0.00,VWS V15.00,2014-08-29 13:58:00,
2014-08-29 09:00:00,77.5,64.0,17.72,South,171,2.2,3.6,63,0.00,,---,0.00,VWS V15.00,2014-08-29 14:00:00,
2014-08-29 09:01:00,77.5,64.0,17.72,ESE,106,0.0,3.6,63,0.00,,---,0.00,VWS V15.00,2014-08-29 14:01:00,
2014-08-29 09:02:00,77.5,64.0,17.72,ESE,106,0.0,3.6,63,0.00,,---,0.00,VWS V15.00,2014-08-29 14:02:00,
2014-08-29 09:03:00,77.9,64.3,17.72,SE,140,0.0,0.0,63,0.00,,---,0.00,VWS V15.00,2014-08-29 14:03:00,
2014-08-29 09:05:00,78.1,64.5,17.72,SE,129,0.0,3.1,63,0.00,,---,0.00,VWS V15.00,2014-08-29 14:05:00,
2014-08-29 09:06:00,78.4,64.8,17.72,North,0,0.0,2.2,63,0.00,,---,0.00,VWS V15.00,2014-08-29 14:06:00,
2014-08-29 09:07:00,78.4,64.8,17.72,SW,220,0.0,2.2,63,0.00,,---,0.00,VWS V15.00,2014-08-29 14:07:00,
2014-08-29 09:09:00,78.8,64.7,17.72,SE,128,0.0,0.0,62,0.00,,---,0.00,VWS V15.00,2014-08-29 14:09:00,
2014-08-29 09:10:00,79.0,64.9,17.72,ESE,117,0.0,2.2,62,0.00,,---,0.00,VWS V15.00,2014-08-29 14:10:00,
2014-08-29 09:11:00,79.2,65.0,17.72,South,183,0.0,2.2,62,0.00,,---,0.00,VWS V15.00,2014-08-29 14:11:00,
2014-08-29 09:12:00,79.3,65.2,17.72,South,180,0.0,0.0,62,0.00,,---,0.00,VWS V15.00,2014-08-29 14:12:00,
2014-08-29 09:14:00,79.7,65.5,17.72,ESE,120,0.0,0.0,62,0.00,,---,0.00,VWS V15.00,2014-08-29 14:14:00,
2014-08-29 09:16:00,79.9,65.7,17.72,SSE,156,4.0,4.0,62,0.00,,---,0.00,VWS V15.00,2014-08-29 14:16:00,
2014-08-29 09:17:00,80.2,66.1,17.72,ESE,110,0.0,0.0,62,0.00,,---,0.00,VWS V15.00,2014-08-29 14:17:00,
2014-08-29 09:19:00,80.6,66.4,17.72,SW,235,3.6,3.6,62,0.00,,---,0.00,VWS V15.00,2014-08-29 14:19:00,
2014-08-29 09:21:00,80.6,66.4,17.72,East,85,0.0,4.0,62,0.00,,---,0.00,VWS V15.00,2014-08-29 14:21:00,
2014-08-29 09:22:00,80.8,66.6,17.72,SSE,162,0.0,0.0,62,0.00,,---,0.00,VWS V15.00,2014-08-29 14:22:00,
2014-08-29 09:23:00,80.8,66.6,17.72,ESE,109,0.0,0.0,62,0.00,,---,0.00,VWS V15.00,2014-08-29 14:23:00,
2014-08-29 09:24:00,80.8,66.6,17.72,SSW,199,0.0,2.2,62,0.00,,---,0.00,VWS V15.00,2014-08-29 14:24:00,
2014-08-29 09:26:00,81.0,66.7,17.72,ENE,61,0.0,0.0,62,0.00,,---,0.00,VWS V15.00,2014-08-29 14:26:00,
2014-08-29 09:27:00,81.0,66.7,17.72,SE,128,5.4,5.4,62,0.00,,---,0.00,VWS V15.00,2014-08-29 14:27:00,
2014-08-29 09:28:00,81.0,66.7,17.72,NE,43,3.1,3.1,62,0.00,,---,0.00,VWS V15.00,2014-08-29 14:28:00,
2014-08-29 09:30:00,81.0,66.7,17.72,East,97,0.0,0.0,62,0.00,,---,0.00,VWS V15.00,2014-08-29 14:30:00,
2014-08-29 09:31:00,81.3,67.1,17.72,East,86,0.0,0.0,62,0.00,,---,0.00,VWS V15.00,2014-08-29 14:31:00,
2014-08-29 09:32:00,81.5,67.2,17.72,East,86,0.0,0.0,62,0.00,,---,0.00,VWS V15.00,2014-08-29 14:32:00,
2014-08-29 09:34:00,81.7,67.4,17.72,ESE,115,0.0,0.0,62,0.00,,---,0.00,VWS V15.00,2014-08-29 14:34:00,
2014-08-29 09:35:00,81.7,67.4,17.72,East,91,0.0,0.0,62,0.00,,---,0.00,VWS V15.00,2014-08-29 14:35:00,
2014-08-29 09:37:00,81.9,67.6,17.72,WSW,242,3.6,5.4,62,0.00,,---,0.00,VWS V15.00,2014-08-29 14:37:00,
2014-08-29 09:38:00,81.9,67.6,17.72,ESE,116,2.7,3.6,62,0.00,,---,0.00,VWS V15.00,2014-08-29 14:38:00,
2014-08-29 09:39:00,81.9,67.6,17.72,South,191,4.9,4.9,62,0.00,,---,0.00,VWS V15.00,2014-08-29 14:39:00,
2014-08-29 09:40:00,81.9,67.6,17.72,SE,136,0.0,0.0,62,0.00,,---,0.00,VWS V15.00,2014-08-29 14:40:00,
2014-08-29 09:41:00,82.0,67.8,17.72,SSW,213,0.0,0.0,62,0.00,,---,0.00,VWS V15.00,2014-08-29 14:41:00,
2014-08-29 09:42:00,82.0,67.8,17.72,SE,126,0.0,4.0,62,0.00,,---,0.00,VWS V15.00,2014-08-29 14:42:00,
2014-08-29 09:43:00,82.2,67.9,17.72,ESE,119,0.0,3.6,62,0.00,,---,0.00,VWS V15.00,2014-08-29 14:43:00,
2014-08-29 09:44:00,82.2,67.9,17.72,SE,127,0.0,0.0,62,0.00,,---,0.00,VWS V15.00,2014-08-29 14:44:00,
2014-08-29 09:45:00,82.4,67.6,17.72,SE,129,0.0,0.0,61,0.00,,---,0.00,VWS V15.00,2014-08-29 14:45:00,
2014-08-29 09:46:00,82.4,67.6,17.72,ESE,113,3.1,3.1,61,0.00,,---,0.00,VWS V15.00,2014-08-29 14:46:00,
2014-08-29 09:47:00,82.6,67.8,17.72,SW,223,0.0,0.0,61,0.00,,---,0.00,VWS V15.00,2014-08-29 14:47:00,
2014-08-29 09:48:00,82.6,67.8,17.72,ESE,120,0.0,0.0,61,0.00,,---,0.00,VWS V15.00,2014-08-29 14:48:00,
2014-08-29 09:49:00,82.6,67.8,17.72,ESE,114,0.0,0.0,61,0.00,,---,0.00,VWS V15.00,2014-08-29 14:49:00,
2014-08-29 09:50:00,82.8,67.9,17.72,WSW,245,0.0,0.0,61,0.00,,---,0.00,VWS V15.00,2014-08-29 14:50:00,
2014-08-29 09:51:00,82.8,67.9,17.72,SE,135,2.7,4.0,61,0.00,,---,0.00,VWS V15.00,2014-08-29 14:51:00,
2014-08-29 09:52:00,82.9,68.1,17.72,SW,229,0.0,0.0,61,0.00,,---,0.00,VWS V15.00,2014-08-29 14:52:00,
2014-08-29 09:53:00,82.9,68.1,17.72,SSW,194,0.0,0.0,61,0.00,,---,0.00,VWS V15.00,2014-08-29 14:53:00,
2014-08-29 09:54:00,83.3,68.5,17.72,SSW,205,0.0,0.0,61,0.00,,---,0.00,VWS V15.00,2014-08-29 14:54:00,
2014-08-29 09:55:00,83.5,68.6,17.72,East,91,0.0,0.0,61,0.00,,---,0.00,VWS V15.00,2014-08-29 14:55:00,
2014-08-29 09:56:00,83.7,68.8,17.72,South,169,2.2,2.2,61,0.00,,---,0.00,VWS V15.00,2014-08-29 14:56:00,
2014-08-29 09:57:00,83.7,68.8,17.72,SE,144,4.9,4.9,61,0.00,,---,0.00,VWS V15.00,2014-08-29 14:57:00,
2014-08-29 09:58:00,83.8,69.0,17.72,SSE,156,0.0,4.0,61,0.00,,---,0.00,VWS V15.00,2014-08-29 14:58:00,
2014-08-29 09:59:00,83.8,69.0,17.72,ESE,108,0.0,0.0,61,0.00,,---,0.00,VWS V15.00,2014-08-29 14:59:00,
2014-08-29 10:01:00,83.8,69.0,17.72,SE,124,0.0,4.0,61,0.00,,---,0.00,VWS V15.00,2014-08-29 15:01:00,
2014-08-29 10:02:00,83.8,69.0,17.72,SSE,161,0.0,0.0,61,0.00,,---,0.00,VWS V15.00,2014-08-29 15:02:00,
2014-08-29 10:03:00,84.0,69.1,17.72,SW,232,0.0,0.0,61,0.00,,---,0.00,VWS V15.00,2014-08-29 15:03:00,
2014-08-29 10:04:00,84.2,69.3,17.72,ESE,119,4.0,4.0,61,0.00,,---,0.00,VWS V15.00,2014-08-29 15:04:00,
2014-08-29 10:05:00,84.0,69.1,17.72,East,89,0.0,4.0,61,0.00,,---,0.00,VWS V15.00,2014-08-29 15:05:00,
2014-08-29 10:06:00,84.0,69.1,17.72,SW,230,0.0,4.0,61,0.00,,---,0.00,VWS V15.00,2014-08-29 15:06:00,
2014-08-29 10:07:00,84.0,69.1,17.72,South,185,0.0,0.0,61,0.00,,---,0.00,VWS V15.00,2014-08-29 15:07:00,
2014-08-29 10:08:00,84.0,69.1,17.72,SSW,192,0.0,0.0,61,0.00,,---,0.00,VWS V15.00,2014-08-29 15:08:00,
2014-08-29 10:09:00,84.0,69.1,17.72,South,176,0.0,0.0,61,0.00,,---,0.00,VWS V15.00,2014-08-29 15:09:00,
2014-08-29 10:11:00,84.0,69.1,17.72,SSW,210,0.0,3.6,61,0.00,,---,0.00,VWS V15.00,2014-08-29 15:11:00,
2014-08-29 10:12:00,84.0,69.1,17.72,SW,216,0.0,0.0,61,0.00,,---,0.00,VWS V15.00,2014-08-29 15:12:00,
2014-08-29 10:13:00,84.0,69.1,17.72,SSW,207,0.0,0.0,61,0.00,,---,0.00,VWS V15.00,2014-08-29 15:13:00,
2014-08-29 10:14:00,84.0,69.1,17.72,SSE,166,0.0,0.0,61,0.00,,---,0.00,VWS V15.00,2014-08-29 15:14:00,
2014-08-29 10:16:00,84.2,69.3,17.72,SW,219,3.6,5.4,61,0.00,,---,0.00,VWS V15.00,2014-08-29 15:16:00,
2014-08-29 10:17:00,84.4,69.5,17.72,SSW,211,0.0,0.0,61,0.00,,---,0.00,VWS V15.00,2014-08-29 15:17:00,
2014-08-29 10:18:00,84.7,69.8,17.72,South,172,0.0,0.0,61,0.00,,---,0.00,VWS V15.00,2014-08-29 15:18:00,
2014-08-29 10:19:00,84.9,70.0,17.72,ESE,123,0.0,0.0,61,0.00,,---,0.00,VWS V15.00,2014-08-29 15:19:00,
2014-08-29 10:20:00,85.3,70.3,17.72,ESE,116,0.0,0.0,61,0.00,,---,0.00,VWS V15.00,2014-08-29 15:20:00,
2014-08-29 10:21:00,85.5,70.5,17.72,SSW,205,0.0,0.0,61,0.00,,---,0.00,VWS V15.00,2014-08-29 15:21:00,
2014-08-29 10:23:00,85.8,70.8,17.72,SW,226,5.8,5.8,61,0.00,,---,0.00,VWS V15.00,2014-08-29 15:23:00,
2014-08-29 10:25:00,85.8,70.8,17.72,SE,146,3.6,5.4,61,0.00,,---,0.00,VWS V15.00,2014-08-29 15:25:00,
2014-08-29 10:26:00,85.5,70.5,17.72,SSW,210,6.3,6.3,61,0.00,,---,0.00,VWS V15.00,2014-08-29 15:26:00,
2014-08-29 10:28:00,85.3,70.3,17.72,NE,55,0.0,0.0,61,0.00,,---,0.00,VWS V15.00,2014-08-29 15:28:00,
2014-08-29 10:29:00,85.3,70.3,17.72,NNE,22,0.0,0.0,61,0.00,,---,0.00,VWS V15.00,2014-08-29 15:29:00,
2014-08-29 10:30:00,85.3,70.3,17.72,ESE,106,0.0,4.0,61,0.00,,---,0.00,VWS V15.00,2014-08-29 15:30:00,
2014-08-29 10:31:00,85.3,70.3,17.72,SE,130,0.0,4.0,61,0.00,,---,0.00,VWS V15.00,2014-08-29 15:31:00,
2014-08-29 10:33:00,85.5,70.5,17.72,NNE,21,0.0,0.0,61,0.00,,---,0.00,VWS V15.00,2014-08-29 15:33:00,
2014-08-29 10:34:00,85.5,70.5,17.72,NNE,21,0.0,0.0,61,0.00,,---,0.00,VWS V15.00,2014-08-29 15:34:00,
2014-08-29 10:35:00,85.6,70.7,17.72,SW,216,4.9,4.9,61,0.00,,---,0.00,VWS V15.00,2014-08-29 15:35:00,
2014-08-29 10:36:00,85.6,70.7,17.72,ESE,123,2.7,2.7,61,0.00,,---,0.00,VWS V15.00,2014-08-29 15:36:00,
2014-08-29 10:37:00,85.8,70.8,17.72,ESE,104,0.0,2.7,61,0.00,,---,0.00,VWS V15.00,2014-08-29 15:37:00,
2014-08-29 10:39:00,86.0,71.0,17.72,SSE,160,0.0,0.0,61,0.00,,---,0.00,VWS V15.00,2014-08-29 15:39:00,
2014-08-29 10:40:00,86.2,71.2,17.72,SSE,161,4.0,4.0,61,0.00,,---,0.00,VWS V15.00,2014-08-29 15:40:00,
2014-08-29 10:41:00,86.2,71.2,17.72,South,186,3.1,4.0,61,0.00,,---,0.00,VWS V15.00,2014-08-29 15:41:00,
2014-08-29 10:42:00,86.0,71.0,17.72,SSW,211,0.0,6.3,61,0.00,,---,0.00,VWS V15.00,2014-08-29 15:42:00,
2014-08-29 10:44:00,85.6,70.7,17.72,SSE,163,0.0,0.0,61,0.00,,---,0.00,VWS V15.00,2014-08-29 15:44:00,
2014-08-29 10:46:00,85.3,70.3,17.72,NW,304,4.5,5.8,61,0.00,,---,0.00,VWS V15.00,2014-08-29 15:46:00,
2014-08-29 10:47:00,85.3,70.3,17.72,SSW,206,3.6,3.6,61,0.00,,---,0.00,VWS V15.00,2014-08-29 15:47:00,
2014-08-29 10:49:00,85.3,70.3,17.72,SE,133,0.0,0.0,61,0.00,,---,0.00,VWS V15.00,2014-08-29 15:49:00,
2014-08-29 10:50:00,85.5,70.5,17.72,SSE,159,5.4,5.4,61,0.00,,---,0.00,VWS V15.00,2014-08-29 15:50:00,
2014-08-29 10:52:00,85.6,70.7,17.72,South,176,3.1,4.9,61,0.00,,---,0.00,VWS V15.00,2014-08-29 15:52:00,
2014-08-29 10:53:00,85.6,70.7,17.72,SW,222,2.7,3.1,61,0.00,,---,0.00,VWS V15.00,2014-08-29 15:53:00,
2014-08-29 10:54:00,85.6,70.7,17.72,ESE,116,0.0,3.6,61,0.00,,---,0.00,VWS V15.00,2014-08-29 15:54:00,
2014-08-29 10:55:00,85.6,70.7,17.72,ENE,74,3.6,3.6,61,0.00,,---,0.00,VWS V15.00,2014-08-29 15:55:00,
2014-08-29 10:57:00,85.6,70.7,17.72,SSW,210,4.0,4.0,61,0.00,,---,0.00,VWS V15.00,2014-08-29 15:57:00,
2014-08-29 10:58:00,85.6,70.7,17.72,SW,224,4.9,5.8,61,0.00,,---,0.00,VWS V15.00,2014-08-29 15:58:00,
2014-08-29 10:59:00,85.5,70.5,17.72,South,183,4.0,4.0,61,0.00,,---,0.00,VWS V15.00,2014-08-29 15:59:00,
2014-08-29 11:01:00,85.3,70.3,17.72,SSE,159,5.4,5.4,61,0.00,,---,0.00,VWS V15.00,2014-08-29 16:01:00,
2014-08-29 11:03:00,85.1,70.2,17.72,South,184,3.1,4.0,61,0.00,,---,0.00,VWS V15.00,2014-08-29 16:03:00,
2014-08-29 11:04:00,85.3,70.3,17.72,SSW,208,4.0,5.8,61,0.00,,---,0.00,VWS V15.00,2014-08-29 16:04:00,
2014-08-29 11:05:00,85.3,70.3,17.72,ENE,76,0.0,4.0,61,0.00,,---,0.00,VWS V15.00,2014-08-29 16:05:00,
2014-08-29 11:07:00,85.5,70.5,17.72,ESE,114,0.0,0.0,61,0.00,,---,0.00,VWS V15.00,2014-08-29 16:07:00,
2014-08-29 11:08:00,85.8,70.8,17.72,ESE,114,5.4,5.4,61,0.00,,---,0.00,VWS V15.00,2014-08-29 16:08:00,
2014-08-29 11:10:00,86.2,71.2,17.72,SSW,203,5.4,5.4,61,0.00,,---,0.00,VWS V15.00,2014-08-29 16:10:00,
2014-08-29 11:12:00,86.4,71.3,17.72,SSW,196,6.3,6.3,61,0.00,,---,0.00,VWS V15.00,2014-08-29 16:12:00,
2014-08-29 11:14:00,86.2,71.2,17.72,SSW,199,0.0,0.0,61,0.00,,---,0.00,VWS V15.00,2014-08-29 16:14:00,
2014-08-29 11:15:00,86.4,71.3,17.72,SE,137,0.0,0.0,61,0.00,,---,0.00,VWS V15.00,2014-08-29 16:15:00,
2014-08-29 11:16:00,86.5,71.5,17.72,SSE,149,0.0,0.0,61,0.00,,---,0.00,VWS V15.00,2014-08-29 16:16:00,
2014-08-29 11:17:00,86.9,71.8,17.72,SW,222,4.0,5.8,61,0.00,,---,0.00,VWS V15.00,2014-08-29 16:17:00,
2014-08-29 11:19:00,87.1,72.0,17.72,SE,124,2.2,5.4,61,0.00,,---,0.00,VWS V15.00,2014-08-29 16:19:00,
2014-08-29 11:20:00,87.1,72.0,17.72,South,178,3.6,3.6,61,0.00,,---,0.00,VWS V15.00,2014-08-29 16:20:00,
2014-08-29 11:21:00,87.1,72.0,17.72,SSW,204,0.0,5.8,61,0.00,,---,0.00,VWS V15.00,2014-08-29 16:21:00,
2014-08-29 11:23:00,87.1,72.0,17.72,East,100,2.7,2.7,61,0.00,,---,0.00,VWS V15.00,2014-08-29 16:23:00,
2014-08-29 11:25:00,87.1,72.0,17.72,SSE,153,7.6,7.6,61,0.00,,---,0.00,VWS V15.00,2014-08-29 16:25:00,
2014-08-29 11:26:00,86.9,71.8,17.72,ESE,116,0.0,0.0,61,0.00,,---,0.00,VWS V15.00,2014-08-29 16:26:00,
2014-08-29 11:27:00,86.9,71.8,17.72,SSW,209,0.0,0.0,61,0.00,,---,0.00,VWS V15.00,2014-08-29 16:27:00,
2014-08-29 11:28:00,87.1,72.0,17.72,SE,142,0.0,0.0,61,0.00,,---,0.00,VWS V15.00,2014-08-29 16:28:00,
2014-08-29 11:30:00,87.3,72.2,17.72,ESE,112,0.0,0.0,61,0.00,,---,0.00,VWS V15.00,2014-08-29 16:30:00,
2014-08-29 11:32:00,87.4,72.3,17.72,SE,129,5.4,5.4,61,0.00,,---,0.00,VWS V15.00,2014-08-29 16:32:00,
2014-08-29 11:33:00,87.6,72.5,17.72,ESE,123,8.1,8.1,61,0.00,,---,0.00,VWS V15.00,2014-08-29 16:33:00,
2014-08-29 11:34:00,87.6,72.5,17.72,SSE,150,0.0,8.1,61,0.00,,---,0.00,VWS V15.00,2014-08-29 16:34:00,
2014-08-29 11:35:00,87.6,72.5,17.72,SSE,166,5.8,5.8,61,0.00,,---,0.00,VWS V15.00,2014-08-29 16:35:00,
2014-08-29 11:37:00,87.4,72.3,17.72,SW,223,3.1,4.0,61,0.00,,---,0.00,VWS V15.00,2014-08-29 16:37:00,
2014-08-29 11:38:00,87.1,72.0,17.72,SSE,153,5.8,7.6,61,0.00,,---,0.00,VWS V15.00,2014-08-29 16:38:00,
2014-08-29 11:40:00,87.1,72.0,17.72,SE,140,2.7,4.0,61,0.00,,---,0.00,VWS V15.00,2014-08-29 16:40:00,
2014-08-29 11:42:00,87.1,72.0,17.72,SSW,211,0.0,0.0,61,0.00,,---,0.00,VWS V15.00,2014-08-29 16:42:00,
2014-08-29 11:43:00,87.3,72.2,17.72,SSE,160,2.7,2.7,61,0.00,,---,0.00,VWS V15.00,2014-08-29 16:43:00,
2014-08-29 11:45:00,87.6,72.5,17.72,SSW,213,0.0,5.4,61,0.00,,---,0.00,VWS V15.00,2014-08-29 16:45:00,
2014-08-29 11:46:00,87.8,72.2,17.72,South,175,2.7,2.7,60,0.00,,---,0.00,VWS V15.00,2014-08-29 16:46:00,
2014-08-29 11:48:00,88.0,72.4,17.72,SE,141,0.0,3.6,60,0.00,,---,0.00,VWS V15.00,2014-08-29 16:48:00,
2014-08-29 11:50:00,88.0,72.4,17.72,SW,233,0.0,3.1,60,0.00,,---,0.00,VWS V15.00,2014-08-29 16:50:00,
2014-08-29 11:51:00,88.0,72.4,17.72,South,188,0.0,3.1,60,0.00,,---,0.00,VWS V15.00,2014-08-29 16:51:00,
2014-08-29 11:53:00,87.8,72.2,17.72,East,91,0.0,0.0,60,0.00,,---,0.00,VWS V15.00,2014-08-29 16:53:00,
2014-08-29 11:54:00,88.0,72.4,17.72,ESE,112,3.6,3.6,60,0.00,,---,0.00,VWS V15.00,2014-08-29 16:54:00,
2014-08-29 11:55:00,88.0,72.4,17.72,SE,141,0.0,2.7,60,0.00,,---,0.00,VWS V15.00,2014-08-29 16:55:00,
2014-08-29 11:56:00,88.0,72.4,17.72,SW,226,0.0,2.7,60,0.00,,---,0.00,VWS V15.00,2014-08-29 16:56:00,
2014-08-29 11:58:00,88.2,72.5,17.72,SE,125,0.0,0.0,60,0.00,,---,0.00,VWS V15.00,2014-08-29 16:58:00,
2014-08-29 11:59:00,88.2,72.5,17.72,ESE,116,2.2,3.1,60,0.00,,---,0.00,VWS V15.00,2014-08-29 16:59:00,
2014-08-29 12:01:00,88.0,72.4,17.72,South,175,3.6,3.6,60,0.00,,---,0.00,VWS V15.00,2014-08-29 17:01:00,
2014-08-29 12:02:00,88.0,72.4,17.72,SE,141,0.0,5.8,60,0.00,,---,0.00,VWS V15.00,2014-08-29 17:02:00,
2014-08-29 12:03:00,87.8,72.2,17.72,East,87,0.0,0.0,60,0.00,,---,0.00,VWS V15.00,2014-08-29 17:03:00,
2014-08-29 12:04:00,87.8,72.2,17.72,East,87,0.0,0.0,60,0.00,,---,0.00,VWS V15.00,2014-08-29 17:04:00,
2014-08-29 12:06:00,88.0,72.4,17.72,South,172,2.2,8.3,60,0.00,,---,0.00,VWS V15.00,2014-08-29 17:06:00,
2014-08-29 12:07:00,88.0,72.4,17.72,East,93,0.0,7.2,60,0.00,,---,0.00,VWS V15.00,2014-08-29 17:07:00,
2014-08-29 12:08:00,87.8,72.2,17.72,SE,135,4.0,4.0,60,0.00,,---,0.00,VWS V15.00,2014-08-29 17:08:00,
2014-08-29 12:09:00,88.0,72.4,17.72,ESE,104,3.1,4.0,60,0.00,,---,0.00,VWS V15.00,2014-08-29 17:09:00,
2014-08-29 12:11:00,88.2,72.5,17.72,ENE,65,0.0,3.6,60,0.00,,---,0.00,VWS V15.00,2014-08-29 17:11:00,
2014-08-29 12:12:00,88.2,72.5,17.72,East,99,2.7,3.6,60,0.00,,---,0.00,VWS V15.00,2014-08-29 17:12:00,
2014-08-29 12:14:00,88.2,72.5,17.72,SSW,198,4.9,5.8,60,0.00,,---,0.00,VWS V15.00,2014-08-29 17:14:00,
2014-08-29 12:15:00,88.2,72.5,17.72,SSE,153,0.0,6.3,60,0.00,,---,0.00,VWS V15.00,2014-08-29 17:15:00,
2014-08-29 12:16:00,88.2,72.5,17.72,East,87,3.1,5.8,60,0.00,,---,0.00,VWS V15.00,2014-08-29 17:16:00,
2014-08-29 12:17:00,88.2,72.5,17.72,East,101,3.6,5.8,60,0.00,,---,0.00,VWS V15.00,2014-08-29 17:17:00,
2014-08-29 12:19:00,88.2,72.5,17.72,SW,219,0.0,0.0,60,0.00,,---,0.00,VWS V15.00,2014-08-29 17:19:00,
2014-08-29 12:20:00,88.5,72.9,17.72,South,180,0.0,2.7,60,0.00,,---,0.00,VWS V15.00,2014-08-29 17:20:00,
2014-08-29 12:22:00,88.9,73.2,17.72,SSW,203,0.0,4.0,60,0.00,,---,0.00,VWS V15.00,2014-08-29 17:22:00,
2014-08-29 12:23:00,89.1,73.4,17.72,SW,231,0.0,0.0,60,0.00,,---,0.00,VWS V15.00,2014-08-29 17:23:00,
2014-08-29 12:24:00,89.2,73.6,17.72,WSW,252,0.0,4.0,60,0.00,,---,0.00,VWS V15.00,2014-08-29 17:24:00,
2014-08-29 12:25:00,89.4,73.7,17.72,SSE,152,2.2,2.2,60,0.00,,---,0.00,VWS V15.00,2014-08-29 17:25:00,
2014-08-29 12:27:00,89.4,73.7,17.72,SSW,206,2.7,5.4,60,0.00,,---,0.00,VWS V15.00,2014-08-29 17:27:00,
2014-08-29 12:28:00,89.4,73.7,17.72,ESE,121,4.0,4.0,60,0.00,,---,0.00,VWS V15.00,2014-08-29 17:28:00,
2014-08-29 12:29:00,89.6,73.9,17.72,SW,226,0.0,0.0,60,0.00,,---,0.00,VWS V15.00,2014-08-29 17:29:00,
2014-08-29 12:30:00,89.6,73.9,17.72,SSE,160,0.0,2.7,60,0.00,,---,0.00,VWS V15.00,2014-08-29 17:30:00,
2014-08-29 12:32:00,89.8,74.1,17.72,ENE,64,2.2,2.2,60,0.00,,---,0.00,VWS V15.00,2014-08-29 17:32:00,
2014-08-29 12:33:00,89.6,73.9,17.72,SSE,157,0.0,2.7,60,0.00,,---,0.00,VWS V15.00,2014-08-29 17:33:00,
2014-08-29 12:34:00,90.1,74.4,17.72,East,94,0.0,0.0,60,0.00,,---,0.00,VWS V15.00,2014-08-29 17:34:00,
2014-08-29 12:36:00,90.1,74.4,17.72,West,268,0.0,0.0,60,0.00,,---,0.00,VWS V15.00,2014-08-29 17:36:00,
2014-08-29 12:37:00,90.3,74.6,17.72,SE,128,0.0,0.0,60,0.00,,---,0.00,VWS V15.00,2014-08-29 17:37:00,
2014-08-29 12:38:00,90.7,74.9,17.72,South,186,0.0,2.2,60,0.00,,---,0.00,VWS V15.00,2014-08-29 17:38:00,
2014-08-29 12:40:00,90.7,74.9,17.72,ESE,115,0.0,0.0,60,0.00,,---,0.00,VWS V15.00,2014-08-29 17:40:00,
2014-08-29 12:41:00,90.7,74.9,17.72,South,180,0.0,0.0,60,0.00,,---,0.00,VWS V15.00,2014-08-29 17:41:00,
2014-08-29 12:42:00,90.5,74.7,17.72,SE,135,0.0,0.0,60,0.00,,---,0.00,VWS V15.00,2014-08-29 17:42:00,
2014-08-29 12:43:00,90.7,74.9,17.72,SE,135,0.0,0.0,60,0.00,,---,0.00,VWS V15.00,2014-08-29 17:43:00,
2014-08-29 12:44:00,90.7,74.9,17.72,NW,325,0.0,0.0,60,0.00,,---,0.00,VWS V15.00,2014-08-29 17:44:00,
2014-08-29 12:45:00,90.9,75.1,17.72,ESE,112,0.0,0.0,60,0.00,,---,0.00,VWS V15.00,2014-08-29 17:45:00,
2014-08-29 12:47:00,90.9,75.1,17.72,NNW,335,0.0,0.0,60,0.00,,---,0.00,VWS V15.00,2014-08-29 17:47:00,
2014-08-29 12:48:00,90.9,75.1,17.72,WSW,256,0.0,0.0,60,0.00,,---,0.00,VWS V15.00,2014-08-29 17:48:00,
2014-08-29 12:49:00,90.9,75.1,17.72,SW,214,0.0,0.0,60,0.00,,---,0.00,VWS V15.00,2014-08-29 17:49:00,
2014-08-29 12:50:00,91.2,75.4,17.72,ESE,118,4.0,4.0,60,0.00,,---,0.00,VWS V15.00,2014-08-29 17:50:00,
2014-08-29 12:52:00,91.4,75.1,17.72,ESE,105,4.0,4.0,59,0.00,,---,0.00,VWS V15.00,2014-08-29 17:52:00,
2014-08-29 12:53:00,91.4,75.1,17.72,SW,227,3.6,3.6,59,0.00,,---,0.00,VWS V15.00,2014-08-29 17:53:00,
2014-08-29 12:54:00,91.2,75.4,17.72,SE,138,4.9,4.9,60,0.00,,---,0.00,VWS V15.00,2014-08-29 17:54:00,
2014-08-29 12:55:00,91.2,75.4,17.72,SSW,210,0.0,3.6,60,0.00,,---,0.00,VWS V15.00,2014-08-29 17:55:00,
2014-08-29 12:56:00,91.2,75.4,17.72,ESE,108,0.0,2.7,60,0.00,,---,0.00,VWS V15.00,2014-08-29 17:56:00,
2014-08-29 12:57:00,91.4,75.1,17.72,East,99,0.0,2.7,59,0.00,,---,0.00,VWS V15.00,2014-08-29 17:57:00,
2014-08-29 12:59:00,91.6,75.2,17.72,ESE,111,0.0,0.0,59,0.00,,---,0.00,VWS V15.00,2014-08-29 17:59:00,
2014-08-29 13:00:00,91.8,75.4,17.72,NNE,12,0.0,0.0,59,0.00,,---,0.00,VWS V15.00,2014-08-29 18:00:00,
2014-08-29 13:01:00,92.1,75.7,17.72,East,97,0.0,0.0,59,0.00,,---,0.00,VWS V15.00,2014-08-29 18:01:00,
2014-08-29 13:02:00,92.1,75.7,17.72,ENE,71,0.0,0.0,59,0.00,,---,0.00,VWS V15.00,2014-08-29 18:02:00,
2014-08-29 13:04:00,92.7,76.2,17.72,WNW,294,0.0,0.0,59,0.00,,---,0.00,VWS V15.00,2014-08-29 18:04:00,
2014-08-29 13:05:00,92.7,76.2,17.72,WNW,294,0.0,0.0,59,0.00,,---,0.00,VWS V15.00,2014-08-29 18:05:00,
2014-08-29 13:07:00,92.7,76.2,17.72,SW,216,5.4,5.4,59,0.00,,---,0.00,VWS V15.00,2014-08-29 18:07:00,
2014-08-29 13:09:00,92.1,75.7,17.72,SSW,202,2.2,3.1,59,0.00,,---,0.00,VWS V15.00,2014-08-29 18:09:00,
2014-08-29 13:10:00,91.9,75.6,17.72,SSW,207,3.6,3.6,59,0.00,,---,0.00,VWS V15.00,2014-08-29 18:10:00,
2014-08-29 13:11:00,91.9,75.6,17.72,NE,54,2.2,3.6,59,0.00,,---,0.00,VWS V15.00,2014-08-29 18:11:00,
2014-08-29 13:12:00,91.9,75.6,17.72,East,96,0.0,3.6,59,0.00,,---,0.00,VWS V15.00,2014-08-29 18:12:00,
2014-08-29 13:14:00,91.9,75.6,17.72,East,85,0.0,0.0,59,0.00,,---,0.00,VWS V15.00,2014-08-29 18:14:00,
2014-08-29 13:15:00,91.9,75.6,17.72,East,93,2.7,2.7,59,0.00,,---,0.00,VWS V15.00,2014-08-29 18:15:00,
2014-08-29 13:16:00,92.1,75.7,17.72,ESE,114,0.0,0.0,59,0.00,,---,0.00,VWS V15.00,2014-08-29 18:16:00,
2014-08-29 13:17:00,92.3,75.9,17.72,NNE,30,0.0,0.0,59,0.00,,---,0.00,VWS V15.00,2014-08-29 18:17:00,
2014-08-29 13:19:00,92.3,75.9,17.72,SW,217,0.0,3.1,59,0.00,,---,0.00,VWS V15.00,2014-08-29 18:19:00,
2014-08-29 13:21:00,92.5,76.1,17.72,SE,126,0.0,3.6,59,0.00,,---,0.00,VWS V15.00,2014-08-29 18:21:00,
2014-08-29 13:22:00,92.5,76.1,17.72,SSE,148,0.0,0.0,59,0.00,,---,0.00,VWS V15.00,2014-08-29 18:22:00,
2014-08-29 13:23:00,92.7,76.2,17.72,East,100,0.0,0.0,59,0.00,,---,0.00,VWS V15.00,2014-08-29 18:23:00,
2014-08-29 13:25:00,92.3,75.9,17.72,East,86,0.0,0.0,59,0.00,,---,0.00,VWS V15.00,2014-08-29 18:25:00,
2014-08-29 13:26:00,92.1,75.7,17.72,SSW,207,0.0,4.0,59,0.00,,---,0.00,VWS V15.00,2014-08-29 18:26:00,
2014-08-29 13:27:00,92.3,75.9,17.72,South,188,4.9,4.9,59,0.00,,---,0.00,VWS V15.00,2014-08-29 18:27:00,
2014-08-29 13:28:00,92.3,75.9,17.72,SSE,167,0.0,4.9,59,0.00,,---,0.00,VWS V15.00,2014-08-29 18:28:00,
2014-08-29 13:30:00,92.8,76.4,17.72,SE,144,4.0,5.4,59,0.00,,---,0.00,VWS V15.00,2014-08-29 18:30:00,
2014-08-29 13:32:00,93.0,76.6,17.72,SSE,153,0.0,0.0,59,0.00,,---,0.00,VWS V15.00,2014-08-29 18:32:00,
2014-08-29 13:33:00,93.2,76.8,17.72,East,82,2.7,2.7,59,0.00,,---,0.00,VWS V15.00,2014-08-29 18:33:00,
2014-08-29 13:35:00,93.4,76.9,17.72,East,97,3.1,3.1,59,0.00,,---,0.00,VWS V15.00,2014-08-29 18:35:00,
2014-08-29 13:37:00,93.4,76.9,17.72,South,180,0.0,0.0,59,0.00,,---,0.00,VWS V15.00,2014-08-29 18:37:00,
2014-08-29 13:38:00,93.4,76.9,17.72,SW,236,3.6,3.6,59,0.00,,---,0.00,VWS V15.00,2014-08-29 18:38:00,
2014-08-29 13:40:00,93.9,77.4,17.72,SSW,204,4.9,4.9,59,0.00,,---,0.00,VWS V15.00,2014-08-29 18:40:00,
2014-08-29 13:42:00,93.6,77.1,17.72,NNE,18,0.0,0.0,59,0.00,,---,0.00,VWS V15.00,2014-08-29 18:42:00,
2014-08-29 13:43:00,93.6,77.1,17.72,SW,219,0.0,0.0,59,0.00,,---,0.00,VWS V15.00,2014-08-29 18:43:00,
2014-08-29 13:44:00,93.4,76.9,17.72,ESE,120,0.0,0.0,59,0.00,,---,0.00,VWS V15.00,2014-08-29 18:44:00,
2014-08-29 13:45:00,93.4,76.9,17.72,NE,50,0.0,2.2,59,0.00,,---,0.00,VWS V15.00,2014-08-29 18:45:00,
2014-08-29 13:47:00,93.0,76.6,17.72,ENE,76,0.0,0.0,59,0.00,,---,0.00,VWS V15.00,2014-08-29 18:47:00,
2014-08-29 13:48:00,93.2,76.8,17.72,SSW,203,0.0,0.0,59,0.00,,---,0.00,VWS V15.00,2014-08-29 18:48:00,
2014-08-29 13:49:00,93.6,77.1,17.72,West,267,0.0,0.0,59,0.00,,---,0.00,VWS V15.00,2014-08-29 18:49:00,
2014-08-29 13:50:00,93.6,77.1,17.72,SW,231,4.5,4.5,59,0.00,,---,0.00,VWS V15.00,2014-08-29 18:50:00,
2014-08-29 13:52:00,93.4,76.9,17.72,SSW,210,3.6,4.0,59,0.00,,---,0.00,VWS V15.00,2014-08-29 18:52:00,
2014-08-29 13:53:00,93.4,76.9,17.72,SSW,195,2.7,2.7,59,0.00,,---,0.00,VWS V15.00,2014-08-29 18:53:00,
2014-08-29 13:54:00,93.4,76.9,17.72,NNE,24,0.0,0.0,59,0.00,,---,0.00,VWS V15.00,2014-08-29 18:54:00,
2014-08-29 13:55:00,93.4,76.9,17.72,NE,41,0.0,0.0,59,0.00,,---,0.00,VWS V15.00,2014-08-29 18:55:00,
2014-08-29 13:58:00,94.1,77.6,17.72,South,178,0.0,4.0,59,0.00,,---,0.00,VWS V15.00,2014-08-29 18:58:00,
2014-08-29 13:59:00,94.5,77.9,17.72,NE,56,0.0,0.0,59,0.00,,---,0.00,VWS V15.00,2014-08-29 18:59:00,
2014-08-29 14:00:00,94.6,78.1,17.72,SE,136,0.0,2.2,59,0.00,,---,0.00,VWS V15.00,2014-08-29 19:00:00,
2014-08-29 14:03:00,94.5,77.9,17.72,ESE,110,0.0,3.6,59,0.00,,---,0.00,VWS V15.00,2014-08-29 19:03:00,
2014-08-29 14:04:00,94.3,77.8,17.72,South,171,0.0,0.0,59,0.00,,---,0.00,VWS V15.00,2014-08-29 19:04:00,
2014-08-29 14:05:00,94.3,77.8,17.72,SSW,206,4.0,4.0,59,0.00,,---,0.00,VWS V15.00,2014-08-29 19:05:00,
2014-08-29 14:08:00,93.7,77.2,17.72,South,177,3.1,3.1,59,0.00,,---,0.00,VWS V15.00,2014-08-29 19:08:00,
2014-08-29 14:09:00,93.4,76.9,17.72,WSW,255,3.6,3.6,59,0.00,,---,0.00,VWS V15.00,2014-08-29 19:09:00,
2014-08-29 14:10:00,93.4,76.9,17.72,ESE,123,3.6,4.0,59,0.00,,---,0.00,VWS V15.00,2014-08-29 19:10:00,
2014-08-29 14:11:00,93.2,76.8,17.72,South,171,3.1,4.5,59,0.00,,---,0.00,VWS V15.00,2014-08-29 19:11:00,
2014-08-29 14:13:00,92.5,76.1,17.72,East,93,0.0,3.1,59,0.00,,---,0.00,VWS V15.00,2014-08-29 19:13:00,
2014-08-29 14:14:00,92.5,76.1,17.72,WSW,240,2.7,2.7,59,0.00,,---,0.00,VWS V15.00,2014-08-29 19:14:00,
2014-08-29 14:16:00,91.9,75.6,17.72,SE,130,2.7,4.0,59,0.00,,---,0.00,VWS V15.00,2014-08-29 19:16:00,
2014-08-29 14:19:00,90.1,74.4,17.72,SSW,192,0.0,5.8,60,0.00,,---,0.00,VWS V15.00,2014-08-29 19:19:00,
2014-08-29 14:21:00,89.2,73.6,17.72,SE,128,4.0,4.0,60,0.00,,---,0.00,VWS V15.00,2014-08-29 19:21:00,
2014-08-29 14:22:00,88.9,73.2,17.72,SW,228,4.0,4.0,60,0.00,,---,0.00,VWS V15.00,2014-08-29 19:22:00,
2014-08-29 14:24:00,88.7,73.0,17.72,SSW,195,2.7,5.8,60,0.00,,---,0.00,VWS V15.00,2014-08-29 19:24:00,
2014-08-29 14:26:00,88.3,72.7,17.72,SSW,203,5.4,5.8,60,0.00,,---,0.00,VWS V15.00,2014-08-29 19:26:00,
2014-08-29 14:27:00,88.3,72.7,17.72,SSW,208,2.7,5.4,60,0.00,,---,0.00,VWS V15.00,2014-08-29 19:27:00,
2014-08-29 14:28:00,88.2,72.5,17.72,SW,220,3.1,4.9,60,0.00,,---,0.00,VWS V15.00,2014-08-29 19:28:00,
2014-08-29 14:30:00,88.0,72.4,17.72,SSE,168,2.2,4.0,60,0.00,,---,0.00,VWS V15.00,2014-08-29 19:30:00,
2014-08-29 14:31:00,88.2,72.5,17.72,SSE,147,0.0,0.0,60,0.00,,---,0.00,VWS V15.00,2014-08-29 19:31:00,
2014-08-29 14:32:00,88.2,72.5,17.72,SSW,203,2.7,2.7,60,0.00,,---,0.00,VWS V15.00,2014-08-29 19:32:00,
2014-08-29 14:34:00,88.5,72.9,17.72,West,279,0.0,2.2,60,0.00,,---,0.00,VWS V15.00,2014-08-29 19:34:00,
2014-08-29 14:35:00,88.5,72.9,17.72,South,177,0.0,0.0,60,0.00,,---,0.00,VWS V15.00,2014-08-29 19:35:00,
2014-08-29 14:37:00,89.2,73.6,17.72,SSW,212,3.6,3.6,60,0.00,,---,0.00,VWS V15.00,2014-08-29 19:37:00,
2014-08-29 14:39:00,90.5,74.7,17.72,SE,141,2.7,2.7,60,0.00,,---,0.00,VWS V15.00,2014-08-29 19:39:00,
2014-08-29 14:40:00,91.6,75.2,17.72,SSE,148,3.1,3.1,59,0.00,,---,0.00,VWS V15.00,2014-08-29 19:40:00,
2014-08-29 14:42:00,92.1,75.7,17.72,ENE,77,0.0,5.4,59,0.00,,---,0.00,VWS V15.00,2014-08-29 19:42:00,
2014-08-29 14:43:00,92.1,75.7,17.72,ESE,120,3.1,3.1,59,0.00,,---,0.00,VWS V15.00,2014-08-29 19:43:00,
2014-08-29 14:44:00,92.7,76.2,17.72,ESE,102,5.8,5.8,59,0.00,,---,0.00,VWS V15.00,2014-08-29 19:44:00,
2014-08-29 14:46:00,92.8,76.4,17.72,SSW,194,5.4,5.4,59,0.00,,---,0.00,VWS V15.00,2014-08-29 19:46:00,
2014-08-29 14:47:00,93.0,76.6,17.72,SW,217,0.0,3.6,59,0.00,,---,0.00,VWS V15.00,2014-08-29 19:47:00,
2014-08-29 14:48:00,93.0,76.6,17.72,South,191,0.0,3.6,59,0.00,,---,0.00,VWS V15.00,2014-08-29 19:48:00,
2014-08-29 14:49:00,92.8,76.4,17.72,SW,223,3.6,5.8,59,0.00,,---,0.00,VWS V15.00,2014-08-29 19:49:00,
2014-08-29 14:51:00,93.0,76.6,17.72,SW,232,0.0,0.0,59,0.00,,---,0.00,VWS V15.00,2014-08-29 19:51:00,
2014-08-29 14:53:00,93.4,76.9,17.72,South,191,0.0,0.0,59,0.00,,---,0.00,VWS V15.00,2014-08-29 19:53:00,
2014-08-29 14:54:00,94.1,77.6,17.72,SSW,203,0.0,0.0,59,0.00,,---,0.00,VWS V15.00,2014-08-29 19:54:00,
2014-08-29 14:56:00,94.5,77.9,17.72,SE,125,0.0,2.7,59,0.00,,---,0.00,VWS V15.00,2014-08-29 19:56:00,
2014-08-29 14:58:00,94.3,77.8,17.72,SSW,201,2.7,4.9,59,0.00,,---,0.00,VWS V15.00,2014-08-29 19:58:00,
2014-08-29 15:00:00,94.5,77.9,17.72,SSW,196,0.0,0.0,59,0.00,,---,0.00,VWS V15.00,2014-08-29 20:00:00,
2014-08-29 15:01:00,94.6,78.1,17.72,ESE,115,0.0,0.0,59,0.00,,---,0.00,VWS V15.00,2014-08-29 20:01:00,
2014-08-29 15:03:00,94.8,78.3,17.72,SSE,154,0.0,0.0,59,0.00,,---,0.00,VWS V15.00,2014-08-29 20:03:00,
2014-08-29 15:04:00,95.0,78.4,17.72,ENE,76,0.0,0.0,59,0.00,,---,0.00,VWS V15.00,2014-08-29 20:04:00,
2014-08-29 15:05:00,95.2,78.6,17.72,SSW,211,0.0,0.0,59,0.00,,---,0.00,VWS V15.00,2014-08-29 20:05:00,
2014-08-29 15:06:00,95.4,78.8,17.72,WNW,284,0.0,0.0,59,0.00,,---,0.00,VWS V15.00,2014-08-29 20:06:00,
2014-08-29 15:08:00,95.4,78.8,17.72,SSE,152,0.0,0.0,59,0.00,,---,0.00,VWS V15.00,2014-08-29 20:08:00,
2014-08-29 15:09:00,95.4,78.8,17.72,SSW,193,0.0,0.0,59,0.00,,---,0.00,VWS V15.00,2014-08-29 20:09:00,
2014-08-29 15:10:00,95.5,78.9,17.72,SSW,207,0.0,0.0,59,0.00,,---,0.00,VWS V15.00,2014-08-29 20:10:00,
2014-08-29 15:12:00,95.4,78.8,17.72,SSW,210,0.0,2.7,59,0.00,,---,0.00,VWS V15.00,2014-08-29 20:12:00,
2014-08-29 15:13:00,95.5,78.9,17.72,South,183,7.6,7.6,59,0.00,,---,0.00,VWS V15.00,2014-08-29 20:13:00,
2014-08-29 15:14:00,95.5,78.9,17.72,WSW,247,0.0,7.6,59,0.00,,---,0.00,VWS V15.00,2014-08-29 20:14:00,
2014-08-29 15:15:00,95.4,78.8,17.72,SSW,210,0.0,0.0,59,0.00,,---,0.00,VWS V15.00,2014-08-29 20:15:00,
2014-08-29 15:16:00,95.5,78.9,17.72,WSW,249,4.0,4.5,59,0.00,,---,0.00,VWS V15.00,2014-08-29 20:16:00,
2014-08-29 15:18:00,95.5,78.9,17.72,SSW,196,3.6,5.8,59,0.00,,---,0.00,VWS V15.00,2014-08-29 20:18:00,
2014-08-29 15:19:00,95.5,78.9,17.72,SSE,159,2.7,2.7,59,0.00,,---,0.00,VWS V15.00,2014-08-29 20:19:00,
2014-08-29 15:21:00,95.5,78.9,17.72,SSW,201,0.0,0.0,59,0.00,,---,0.00,VWS V15.00,2014-08-29 20:21:00,
2014-08-29 15:22:00,95.7,79.1,17.72,SSW,195,0.0,0.0,59,0.00,,---,0.00,VWS V15.00,2014-08-29 20:22:00,
2014-08-29 15:23:00,95.9,79.3,17.72,SSW,194,0.0,0.0,59,0.00,,---,0.00,VWS V15.00,2014-08-29 20:23:00,
2014-08-29 15:24:00,96.3,79.6,17.72,SSW,204,0.0,0.0,59,0.00,,---,0.00,VWS V15.00,2014-08-29 20:24:00,
2014-08-29 15:26:00,96.4,79.8,17.72,SW,219,4.0,4.0,59,0.00,,---,0.00,VWS V15.00,2014-08-29 20:26:00,
2014-08-29 15:28:00,96.6,79.9,17.72,South,182,2.2,4.0,59,0.00,,---,0.00,VWS V15.00,2014-08-29 20:28:00,
2014-08-29 15:30:00,96.3,79.6,17.72,SSW,208,0.0,0.0,59,0.00,,---,0.00,VWS V15.00,2014-08-29 20:30:00,
2014-08-29 15:31:00,96.4,79.8,17.72,South,185,8.1,8.1,59,0.00,,---,0.00,VWS V15.00,2014-08-29 20:31:00,
2014-08-29 15:33:00,95.9,79.3,17.72,SSW,194,3.1,3.1,59,0.00,,---,0.00,VWS V15.00,2014-08-29 20:33:00,
2014-08-29 15:34:00,96.1,79.4,17.72,WSW,258,4.9,4.9,59,0.00,,---,0.00,VWS V15.00,2014-08-29 20:34:00,
2014-08-29 15:35:00,96.1,79.4,17.72,ENE,72,5.4,6.3,59,0.00,,---,0.00,VWS V15.00,2014-08-29 20:35:00,
2014-08-29 15:36:00,95.0,78.4,17.72,East,91,4.9,4.9,59,0.00,,---,0.00,VWS V15.00,2014-08-29 20:36:00,
2014-08-29 15:38:00,94.6,78.1,17.72,SW,230,6.3,7.6,59,0.00,,---,0.00,VWS V15.00,2014-08-29 20:38:00,
2014-08-29 15:39:00,94.5,77.9,17.72,SSW,202,2.7,3.1,59,0.00,,---,0.00,VWS V15.00,2014-08-29 20:39:00,
2014-08-29 15:40:00,94.3,77.8,17.72,South,170,4.0,5.4,59,0.00,,---,0.00,VWS V15.00,2014-08-29 20:40:00,
2014-08-29 15:41:00,94.3,77.8,17.72,SW,234,0.0,5.4,59,0.00,,---,0.00,VWS V15.00,2014-08-29 20:41:00,
2014-08-29 15:43:00,94.5,77.9,17.72,ENE,70,0.0,0.0,59,0.00,,---,0.00,VWS V15.00,2014-08-29 20:43:00,
2014-08-29 15:44:00,95.0,78.4,17.72,South,175,0.0,2.7,59,0.00,,---,0.00,VWS V15.00,2014-08-29 20:44:00,
2014-08-29 15:45:00,95.0,78.4,17.72,South,191,4.9,4.9,59,0.00,,---,0.00,VWS V15.00,2014-08-29 20:45:00,
2014-08-29 15:47:00,95.5,78.9,17.72,SSW,212,3.6,5.8,59,0.00,,---,0.00,VWS V15.00,2014-08-29 20:47:00,
2014-08-29 15:48:00,95.5,78.9,17.72,ESE,114,4.9,5.4,59,0.00,,---,0.00,VWS V15.00,2014-08-29 20:48:00,
2014-08-29 15:49:00,95.9,79.3,17.72,SSW,212,0.0,0.0,59,0.00,,---,0.00,VWS V15.00,2014-08-29 20:49:00,
2014-08-29 15:50:00,95.9,79.3,17.72,SSW,212,0.0,0.0,59,0.00,,---,0.00,VWS V15.00,2014-08-29 20:50:00,
2014-08-29 15:51:00,96.4,79.8,17.72,SSW,206,0.0,0.0,59,0.00,,---,0.00,VWS V15.00,2014-08-29 20:51:00,
2014-08-29 15:52:00,96.6,79.9,17.72,SW,216,0.0,0.0,59,0.00,,---,0.00,VWS V15.00,2014-08-29 20:52:00,
2014-08-29 15:53:00,97.5,80.3,17.72,SSW,207,5.8,6.3,58,0.00,,---,0.00,VWS V15.00,2014-08-29 20:53:00,
2014-08-29 15:54:00,97.5,80.3,17.72,SSW,207,5.8,6.3,58,0.00,,---,0.00,VWS V15.00,2014-08-29 20:54:00,
2014-08-29 15:55:00,97.2,79.9,17.72,West,262,3.6,3.6,58,0.00,,---,0.00,VWS V15.00,2014-08-29 20:55:00,
2014-08-29 15:57:00,95.9,79.3,17.72,SSW,206,2.2,6.3,59,0.00,,---,0.00,VWS V15.00,2014-08-29 20:57:00,
2014-08-29 15:59:00,94.8,78.3,17.72,WSW,249,0.0,0.0,59,0.00,,---,0.00,VWS V15.00,2014-08-29 20:59:00,
2014-08-29 16:00:00,94.5,77.9,17.72,WSW,250,0.0,0.0,59,0.00,,---,0.00,VWS V15.00,2014-08-29 21:00:00,
2014-08-29 16:02:00,94.5,77.9,17.72,West,259,0.0,0.0,59,0.00,,---,0.00,VWS V15.00,2014-08-29 21:02:00,
2014-08-29 16:04:00,95.4,78.8,17.72,SSW,207,6.3,7.6,59,0.00,,---,0.00,VWS V15.00,2014-08-29 21:04:00,
2014-08-29 16:05:00,95.4,78.8,17.72,SSW,207,0.0,7.6,59,0.00,,---,0.00,VWS V15.00,2014-08-29 21:05:00,
2014-08-29 16:06:00,95.7,79.1,17.72,SW,217,3.6,3.6,59,0.00,,---,0.00,VWS V15.00,2014-08-29 21:06:00,
2014-08-29 16:07:00,95.9,79.3,17.72,SSW,201,0.0,3.1,59,0.00,,---,0.00,VWS V15.00,2014-08-29 21:07:00,
2014-08-29 16:08:00,95.7,79.1,17.72,SSW,212,4.0,6.3,59,0.00,,---,0.00,VWS V15.00,2014-08-29 21:08:00,
2014-08-29 16:09:00,95.2,78.6,17.72,ESE,118,0.0,3.1,59,0.00,,---,0.00,VWS V15.00,2014-08-29 21:09:00,
2014-08-29 16:10:00,95.0,78.4,17.72,ESE,118,0.0,0.0,59,0.00,,---,0.00,VWS V15.00,2014-08-29 21:10:00,
2014-08-29 16:12:00,93.6,77.1,17.72,WNW,296,0.0,0.0,59,0.00,,---,0.00,VWS V15.00,2014-08-29 21:12:00,
2014-08-29 16:13:00,93.6,77.1,17.72,SW,231,0.0,0.0,59,0.00,,---,0.00,VWS V15.00,2014-08-29 21:13:00,
2014-08-29 16:15:00,93.7,77.2,17.72,WSW,253,0.0,0.0,59,0.00,,---,0.00,VWS V15.00,2014-08-29 21:15:00,
2014-08-29 16:18:00,93.0,76.6,17.72,SSE,168,2.2,2.7,59,0.00,,---,0.00,VWS V15.00,2014-08-29 21:18:00,
2014-08-29 16:19:00,92.8,76.4,17.72,SE,143,0.0,2.7,59,0.00,,---,0.00,VWS V15.00,2014-08-29 21:19:00,
2014-08-29 16:20:00,92.5,76.1,17.72,SE,141,4.9,4.9,59,0.00,,---,0.00,VWS V15.00,2014-08-29 21:20:00,
2014-08-29 16:21:00,91.9,75.6,17.72,ENE,73,0.0,0.0,59,0.00,,---,0.00,VWS V15.00,2014-08-29 21:21:00,
2014-08-29 16:24:00,92.5,76.1,17.72,SE,124,0.0,0.0,59,0.00,,---,0.00,VWS V15.00,2014-08-29 21:24:00,
2014-08-29 16:25:00,92.3,75.9,17.72,SSW,209,0.0,0.0,59,0.00,,---,0.00,VWS V15.00,2014-08-29 21:25:00,
2014-08-29 16:26:00,92.3,75.9,17.72,SE,143,0.0,0.0,59,0.00,,---,0.00,VWS V15.00,2014-08-29 21:26:00,
2014-08-29 16:29:00,92.7,76.2,17.72,SSW,193,0.0,0.0,59,0.00,,---,0.00,VWS V15.00,2014-08-29 21:29:00,
2014-08-29 16:30:00,92.8,76.4,17.72,South,189,0.0,0.0,59,0.00,,---,0.00,VWS V15.00,2014-08-29 21:30:00,
2014-08-29 16:31:00,93.6,77.1,17.72,SSW,210,0.0,0.0,59,0.00,,---,0.00,VWS V15.00,2014-08-29 21:31:00,
2014-08-29 16:34:00,95.2,78.6,17.72,SSE,166,0.0,2.2,59,0.00,,---,0.00,VWS V15.00,2014-08-29 21:34:00,
2014-08-29 16:35:00,95.4,78.8,17.72,SW,235,0.0,0.0,59,0.00,,---,0.00,VWS V15.00,2014-08-29 21:35:00,
2014-08-29 16:36:00,95.2,78.6,17.72,ESE,111,0.0,0.0,59,0.00,,---,0.00,VWS V15.00,2014-08-29 21:36:00,
2014-08-29 16:39:00,93.0,76.6,17.72,SSE,152,0.0,0.0,59,0.00,,---,0.00,VWS V15.00,2014-08-29 21:39:00,
2014-08-29 16:40:00,92.7,76.2,17.72,ESE,110,0.0,3.1,59,0.00,,---,0.00,VWS V15.00,2014-08-29 21:40:00,
2014-08-29 16:41:00,92.1,75.7,17.72,SSW,201,0.0,0.0,59,0.00,,---,0.00,VWS V15.00,2014-08-29 21:41:00,
2014-08-29 16:44:00,93.7,77.2,17.72,SSW,208,3.6,4.0,59,0.00,,---,0.00,VWS V15.00,2014-08-29 21:44:00,
2014-08-29 16:45:00,93.7,77.2,17.72,SSW,213,3.6,4.0,59,0.00,,---,0.00,VWS V15.00,2014-08-29 21:45:00,
2014-08-29 16:47:00,92.5,76.1,17.72,SSE,164,0.0,3.1,59,0.00,,---,0.00,VWS V15.00,2014-08-29 21:47:00,
2014-08-29 16:49:00,91.4,75.1,17.72,SSW,200,0.0,0.0,59,0.00,,---,0.00,VWS V15.00,2014-08-29 21:49:00,
2014-08-29 16:50:00,91.2,75.4,17.72,SSW,200,0.0,0.0,60,0.00,,---,0.00,VWS V15.00,2014-08-29 21:50:00,
2014-08-29 16:51:00,91.0,75.2,17.72,SSW,200,0.0,0.0,60,0.00,,---,0.00,VWS V15.00,2014-08-29 21:51:00,
2014-08-29 16:52:00,90.7,74.9,17.72,SW,214,0.0,0.0,60,0.00,,---,0.00,VWS V15.00,2014-08-29 21:52:00,
2014-08-29 16:55:00,90.0,74.2,17.72,WSW,256,0.0,0.0,60,0.00,,---,0.00,VWS V15.00,2014-08-29 21:55:00,
2014-08-29 16:56:00,90.0,74.2,17.72,SSW,210,0.0,0.0,60,0.00,,---,0.00,VWS V15.00,2014-08-29 21:56:00,
2014-08-29 16:57:00,89.6,73.9,17.72,SW,222,0.0,0.0,60,0.00,,---,0.00,VWS V15.00,2014-08-29 21:57:00,
2014-08-29 17:00:00,88.9,73.2,17.72,SSE,156,0.0,2.2,60,0.00,,---,0.00,VWS V15.00,2014-08-29 22:00:00,
2014-08-29 17:01:00,88.9,73.2,17.72,SSE,156,0.0,2.2,60,0.00,,---,0.00,VWS V15.00,2014-08-29 22:01:00,
2014-08-29 17:02:00,88.7,73.0,17.72,SSW,198,0.0,0.0,60,0.00,,---,0.00,VWS V15.00,2014-08-29 22:02:00,
2014-08-29 17:06:00,88.0,72.4,17.72,WSW,250,0.0,0.0,60,0.00,,---,0.00,VWS V15.00,2014-08-29 22:06:00,
2014-08-29 17:07:00,87.8,72.2,17.72,SE,146,0.0,2.2,60,0.00,,---,0.00,VWS V15.00,2014-08-29 22:07:00,
2014-08-29 17:08:00,87.8,72.2,17.72,SSW,195,0.0,0.0,60,0.00,,---,0.00,VWS V15.00,2014-08-29 22:08:00,
2014-08-29 17:11:00,88.0,72.4,17.72,SE,138,0.0,0.0,60,0.00,,---,0.00,VWS V15.00,2014-08-29 22:11:00,
2014-08-29 17:12:00,89.4,73.7,17.72,SE,138,0.0,0.0,60,0.00,,---,0.00,VWS V15.00,2014-08-29 22:12:00,
2014-08-29 17:13:00,90.5,74.7,17.72,SE,128,0.0,0.0,60,0.00,,---,0.00,VWS V15.00,2014-08-29 22:13:00,
2014-08-29 17:14:00,91.9,75.6,17.72,SE,128,0.0,0.0,59,0.00,,---,0.00,VWS V15.00,2014-08-29 22:14:00,
2014-08-29 17:17:00,93.7,77.2,17.72,NNE,18,0.0,0.0,59,0.00,,---,0.00,VWS V15.00,2014-08-29 22:17:00,
2014-08-29 17:18:00,93.0,76.6,17.72,NNE,19,0.0,0.0,59,0.00,,---,0.00,VWS V15.00,2014-08-29 22:18:00,
2014-08-29 17:19:00,92.7,76.2,17.72,NNE,15,0.0,0.0,59,0.00,,---,0.00,VWS V15.00,2014-08-29 22:19:00,
2014-08-29 17:22:00,91.8,75.4,17.72,East,88,0.0,0.0,59,0.00,,---,0.00,VWS V15.00,2014-08-29 22:22:00,
2014-08-29 17:23:00,91.0,75.2,17.72,SE,136,3.6,3.6,60,0.00,,---,0.00,VWS V15.00,2014-08-29 22:23:00,
2014-08-29 17:24:00,90.9,75.1,17.72,South,187,0.0,0.0,60,0.00,,---,0.00,VWS V15.00,2014-08-29 22:24:00,
2014-08-29 17:27:00,90.5,74.7,17.72,ESE,117,0.0,0.0,60,0.00,,---,0.00,VWS V15.00,2014-08-29 22:27:00,
2014-08-29 17:28:00,90.3,74.6,17.72,South,170,0.0,0.0,60,0.00,,---,0.00,VWS V15.00,2014-08-29 22:28:00,
2014-08-29 17:29:00,90.3,74.6,17.72,SSW,208,2.2,3.1,60,0.00,,---,0.00,VWS V15.00,2014-08-29 22:29:00,
2014-08-29 17:32:00,90.0,74.2,17.72,SSE,163,0.0,0.0,60,0.00,,---,0.00,VWS V15.00,2014-08-29 22:32:00,
2014-08-29 17:33:00,90.0,74.2,17.72,SSE,148,0.0,0.0,60,0.00,,---,0.00,VWS V15.00,2014-08-29 22:33:00,
2014-08-29 17:34:00,90.0,74.2,17.72,SE,131,0.0,0.0,60,0.00,,---,0.00,VWS V15.00,2014-08-29 22:34:00,
2014-08-29 17:35:00,90.0,74.2,17.72,SE,138,3.1,3.1,60,0.00,,---,0.00,VWS V15.00,2014-08-29 22:35:00,
2014-08-29 17:37:00,89.8,74.1,17.72,SE,142,0.0,0.0,60,0.00,,---,0.00,VWS V15.00,2014-08-29 22:37:00,
2014-08-29 17:38:00,89.8,74.1,17.72,SSE,148,0.0,0.0,60,0.00,,---,0.00,VWS V15.00,2014-08-29 22:38:00,
2014-08-29 17:39:00,89.6,73.9,17.72,SE,139,2.7,2.7,60,0.00,,---,0.00,VWS V15.00,2014-08-29 22:39:00,
2014-08-29 17:40:00,89.6,73.9,17.72,ESE,109,0.0,4.0,60,0.00,,---,0.00,VWS V15.00,2014-08-29 22:40:00,
2014-08-29 17:41:00,89.6,73.9,17.72,ESE,111,0.0,4.0,60,0.00,,---,0.00,VWS V15.00,2014-08-29 22:41:00,
2014-08-29 17:42:00,89.4,73.7,17.72,South,169,0.0,0.0,60,0.00,,---,0.00,VWS V15.00,2014-08-29 22:42:00,
2014-08-29 17:43:00,89.4,73.7,17.72,South,183,3.1,3.1,60,0.00,,---,0.00,VWS V15.00,2014-08-29 22:43:00,
2014-08-29 17:44:00,89.2,73.6,17.72,SSE,162,0.0,0.0,60,0.00,,---,0.00,VWS V15.00,2014-08-29 22:44:00,
2014-08-29 17:46:00,89.1,73.4,17.72,SSE,164,0.0,3.1,60,0.00,,---,0.00,VWS V15.00,2014-08-29 22:46:00,
2014-08-29 17:47:00,88.9,73.2,17.72,SE,144,0.0,0.0,60,0.00,,---,0.00,VWS V15.00,2014-08-29 22:47:00,
2014-08-29 17:48:00,88.9,73.2,17.72,SE,125,0.0,0.0,60,0.00,,---,0.00,VWS V15.00,2014-08-29 22:48:00,
2014-08-29 17:49:00,88.9,73.2,17.72,SSW,193,0.0,0.0,60,0.00,,---,0.00,VWS V15.00,2014-08-29 22:49:00,
2014-08-29 17:51:00,88.9,73.2,17.72,SE,136,0.0,0.0,60,0.00,,---,0.00,VWS V15.00,2014-08-29 22:51:00,
2014-08-29 17:52:00,88.7,73.0,17.72,South,182,2.2,2.2,60,0.00,,---,0.00,VWS V15.00,2014-08-29 22:52:00,
2014-08-29 17:53:00,88.7,73.0,17.72,SSE,163,0.0,0.0,60,0.00,,---,0.00,VWS V15.00,2014-08-29 22:53:00,
2014-08-29 17:55:00,88.7,73.0,17.72,SSE,157,0.0,2.7,60,0.00,,---,0.00,VWS V15.00,2014-08-29 22:55:00,
2014-08-29 17:56:00,88.7,73.0,17.72,ENE,63,0.0,0.0,60,0.00,,---,0.00,VWS V15.00,2014-08-29 22:56:00,
2014-08-29 17:57:00,88.5,72.9,17.72,SSW,195,0.0,0.0,60,0.00,,---,0.00,VWS V15.00,2014-08-29 22:57:00,
2014-08-29 17:59:00,88.5,72.9,17.72,SE,135,0.0,5.4,60,0.00,,---,0.00,VWS V15.00,2014-08-29 22:59:00,
2014-08-29 18:00:00,88.3,72.7,17.72,SSE,151,0.0,0.0,60,0.00,,---,0.00,VWS V15.00,2014-08-29 23:00:00,
2014-08-29 18:01:00,88.3,72.7,17.72,SE,125,0.0,0.0,60,0.00,,---,0.00,VWS V15.00,2014-08-29 23:01:00,
2014-08-29 18:02:00,88.2,72.5,17.72,SE,128,0.0,2.7,60,0.00,,---,0.00,VWS V15.00,2014-08-29 23:02:00,
2014-08-29 18:04:00,88.0,72.4,17.72,SSE,156,0.0,0.0,60,0.00,,---,0.00,VWS V15.00,2014-08-29 23:04:00,
2014-08-29 18:05:00,87.6,72.5,17.72,South,183,0.0,0.0,61,0.00,,---,0.00,VWS V15.00,2014-08-29 23:05:00,
2014-08-29 18:07:00,87.3,72.2,17.72,SSW,211,0.0,2.7,61,0.00,,---,0.00,VWS V15.00,2014-08-29 23:07:00,
2014-08-29 18:09:00,86.9,71.8,17.72,SSE,153,0.0,4.9,61,0.00,,---,0.00,VWS V15.00,2014-08-29 23:09:00,
2014-08-29 18:10:00,86.9,71.8,17.72,SE,144,0.0,0.0,61,0.00,,---,0.00,VWS V15.00,2014-08-29 23:10:00,
2014-08-29 18:12:00,86.5,71.5,17.72,SSE,159,0.0,0.0,61,0.00,,---,0.00,VWS V15.00,2014-08-29 23:12:00,
2014-08-29 18:15:00,86.0,71.0,17.72,ESE,116,0.0,0.0,61,0.00,,---,0.00,VWS V15.00,2014-08-29 23:15:00,
2014-08-29 18:16:00,85.8,70.8,17.72,East,88,0.0,0.0,61,0.00,,---,0.00,VWS V15.00,2014-08-29 23:16:00,
2014-08-29 18:17:00,85.5,70.5,17.72,SE,134,0.0,0.0,61,0.00,,---,0.00,VWS V15.00,2014-08-29 23:17:00,
2014-08-29 18:18:00,85.5,70.5,17.72,SE,134,0.0,0.0,61,0.00,,---,0.00,VWS V15.00,2014-08-29 23:18:00,
2014-08-29 18:20:00,84.9,70.0,17.72,SE,134,0.0,0.0,61,0.00,,---,0.00,VWS V15.00,2014-08-29 23:20:00,
2014-08-29 18:21:00,84.7,69.8,17.72,SE,134,0.0,0.0,61,0.00,,---,0.00,VWS V15.00,2014-08-29 23:21:00,
2014-08-29 18:23:00,84.4,69.5,17.72,SE,134,0.0,0.0,61,0.00,,---,0.00,VWS V15.00,2014-08-29 23:23:00,
2014-08-29 18:25:00,83.8,69.0,17.72,West,265,0.0,0.0,61,0.00,,---,0.00,VWS V15.00,2014-08-29 23:25:00,
2014-08-29 18:26:00,83.7,68.8,17.72,SSE,154,0.0,0.0,61,0.00,,---,0.00,VWS V15.00,2014-08-29 23:26:00,
2014-08-29 18:27:00,83.7,68.8,17.72,SSE,166,0.0,0.0,61,0.00,,---,0.00,VWS V15.00,2014-08-29 23:27:00,
2014-08-29 18:28:00,83.7,68.8,17.72,South,190,5.4,5.8,61,0.00,,---,0.00,VWS V15.00,2014-08-29 23:28:00,
2014-08-29 18:31:00,83.7,68.8,17.72,South,191,0.0,4.0,61,0.00,,---,0.00,VWS V15.00,2014-08-29 23:31:00,
2014-08-29 18:32:00,83.8,69.0,17.72,South,176,0.0,0.0,61,0.00,,---,0.00,VWS V15.00,2014-08-29 23:32:00,
2014-08-29 18:33:00,83.8,69.0,17.72,SSE,167,0.0,0.0,61,0.00,,---,0.00,VWS V15.00,2014-08-29 23:33:00,
2014-08-29 18:34:00,83.8,69.0,17.72,SSE,167,0.0,0.0,61,0.00,,---,0.00,VWS V15.00,2014-08-29 23:34:00,
2014-08-29 18:37:00,83.7,68.8,17.72,SW,236,0.0,0.0,61,0.00,,---,0.00,VWS V15.00,2014-08-29 23:37:00,
2014-08-29 18:38:00,83.7,68.8,17.72,East,92,0.0,0.0,61,0.00,,---,0.00,VWS V15.00,2014-08-29 23:38:00,
2014-08-29 18:39:00,83.7,68.8,17.72,SW,219,0.0,0.0,61,0.00,,---,0.00,VWS V15.00,2014-08-29 23:39:00,
2014-08-29 18:42:00,83.7,68.8,17.72,SSW,203,2.7,5.4,61,0.00,,---,0.00,VWS V15.00,2014-08-29 23:42:00,
2014-08-29 18:43:00,83.5,68.6,17.72,SSW,194,0.0,0.0,61,0.00,,---,0.00,VWS V15.00,2014-08-29 23:43:00,
2014-08-29 18:44:00,83.5,68.6,17.72,South,182,10.1,10.1,61,0.00,,---,0.00,VWS V15.00,2014-08-29 23:44:00,
2014-08-29 18:48:00,82.9,68.1,17.72,SE,139,0.0,0.0,61,0.00,,---,0.00,VWS V15.00,2014-08-29 23:48:00,
2014-08-29 18:49:00,82.8,67.9,17.72,WSW,258,0.0,0.0,61,0.00,,---,0.00,VWS V15.00,2014-08-29 23:49:00,
2014-08-29 18:53:00,81.9,67.6,17.72,ENE,74,0.0,4.0,62,0.00,,---,0.00,VWS V15.00,2014-08-29 23:53:00,
2014-08-29 18:55:00,81.5,67.2,17.72,SE,142,0.0,2.7,62,0.00,,---,0.00,VWS V15.00,2014-08-29 23:55:00,
2014-08-29 18:58:00,80.8,66.6,17.72,SE,129,0.0,0.0,62,0.00,,---,0.00,VWS V15.00,2014-08-29 23:58:00,
2014-08-29 18:59:00,80.8,66.6,17.72,SE,129,0.0,0.0,62,0.00,,---,0.00,VWS V15.00,2014-08-29 23:59:00,
2014-08-29 19:00:00,80.6,66.4,17.72,SE,129,0.0,0.0,62,0.00,,---,0.00,VWS V15.00,2014-08-30 00:00:00,
2014-08-29 19:04:00,80.2,66.1,17.72,SSW,193,0.0,4.0,62,0.00,,---,0.00,VWS V15.00,2014-08-30 00:04:00,
2014-08-29 19:05:00,80.2,66.1,17.72,SSE,163,0.0,0.0,62,0.00,,---,0.00,VWS V15.00,2014-08-30 00:05:00,
2014-08-29 19:06:00,80.2,66.1,17.72,South,177,0.0,0.0,62,0.00,,---,0.00,VWS V15.00,2014-08-30 00:06:00,
2014-08-29 19:09:00,79.9,65.7,17.72,NNE,24,0.0,0.0,62,0.00,,---,0.00,VWS V15.00,2014-08-30 00:09:00,
2014-08-29 19:10:00,79.7,65.5,17.72,ESE,119,2.7,3.6,62,0.00,,---,0.00,VWS V15.00,2014-08-30 00:10:00,
2014-08-29 19:11:00,79.7,65.5,17.72,ENE,73,0.0,3.6,62,0.00,,---,0.00,VWS V15.00,2014-08-30 00:11:00,
2014-08-29 19:12:00,79.7,66.9,17.72,ESE,103,0.0,0.0,65,0.00,,---,0.00,VWS V15.00,2014-08-30 00:12:00,
2014-08-29 19:14:00,79.3,66.6,17.72,ESE,111,0.0,0.0,65,0.00,,---,0.00,VWS V15.00,2014-08-30 00:14:00,
2014-08-29 19:15:00,79.3,66.6,17.72,East,101,0.0,0.0,65,0.00,,---,0.00,VWS V15.00,2014-08-30 00:15:00,
2014-08-29 19:16:00,79.3,66.6,17.72,East,101,0.0,0.0,65,0.00,,---,0.00,VWS V15.00,2014-08-30 00:16:00,
2014-08-29 19:17:00,79.3,66.6,17.72,East,101,0.0,0.0,65,0.00,,---,0.00,VWS V15.00,2014-08-30 00:17:00,
2014-08-29 19:19:00,79.2,66.4,17.72,ESE,122,0.0,0.0,65,0.00,,---,0.00,VWS V15.00,2014-08-30 00:19:00,
2014-08-29 19:21:00,79.2,66.4,17.72,ESE,112,0.0,0.0,65,0.00,,---,0.00,VWS V15.00,2014-08-30 00:21:00,
2014-08-29 19:22:00,79.2,66.4,17.72,East,100,0.0,0.0,65,0.00,,---,0.00,VWS V15.00,2014-08-30 00:22:00,
2014-08-29 19:24:00,79.0,66.2,17.72,East,98,0.0,0.0,65,0.00,,---,0.00,VWS V15.00,2014-08-30 00:24:00,
2014-08-29 19:26:00,78.8,66.1,17.72,East,98,0.0,0.0,65,0.00,,---,0.00,VWS V15.00,2014-08-30 00:26:00,
2014-08-29 19:27:00,78.6,65.9,17.72,East,98,0.0,0.0,65,0.00,,---,0.00,VWS V15.00,2014-08-30 00:27:00,
2014-08-29 19:28:00,78.6,65.9,17.72,East,98,0.0,0.0,65,0.00,,---,0.00,VWS V15.00,2014-08-30 00:28:00,
2014-08-29 19:30:00,78.4,65.7,17.72,ESE,112,0.0,0.0,65,0.00,,---,0.00,VWS V15.00,2014-08-30 00:30:00,
2014-08-29 19:32:00,78.4,65.7,17.72,SW,221,0.0,0.0,65,0.00,,---,0.00,VWS V15.00,2014-08-30 00:32:00,
2014-08-29 19:33:00,78.3,65.5,17.72,SW,217,0.0,0.0,65,0.00,,---,0.00,VWS V15.00,2014-08-30 00:33:00,
2014-08-29 19:35:00,78.3,65.5,17.72,ESE,102,3.1,3.1,65,0.00,,---,0.00,VWS V15.00,2014-08-30 00:35:00,
2014-08-29 19:37:00,78.3,65.5,17.72,South,190,0.0,0.0,65,0.00,,---,0.00,VWS V15.00,2014-08-30 00:37:00,
2014-08-29 19:38:00,78.3,65.5,17.72,SE,145,3.1,4.0,65,0.00,,---,0.00,VWS V15.00,2014-08-30 00:38:00,
2014-08-29 19:40:00,78.3,65.5,17.72,East,93,0.0,0.0,65,0.00,,---,0.00,VWS V15.00,2014-08-30 00:40:00,
2014-08-29 19:42:00,78.3,65.5,17.72,South,186,0.0,0.0,65,0.00,,---,0.00,VWS V15.00,2014-08-30 00:42:00,
2014-08-29 19:43:00,78.3,65.5,17.72,WSW,246,0.0,0.0,65,0.00,,---,0.00,VWS V15.00,2014-08-30 00:43:00,
2014-08-29 19:44:00,78.3,65.5,17.72,SW,232,0.0,0.0,65,0.00,,---,0.00,VWS V15.00,2014-08-30 00:44:00,
2014-08-29 19:45:00,78.3,65.5,17.72,SE,128,0.0,0.0,65,0.00,,---,0.00,VWS V15.00,2014-08-30 00:45:00,
2014-08-29 19:47:00,78.3,66.0,17.72,East,98,0.0,0.0,66,0.00,,---,0.00,VWS V15.00,2014-08-30 00:47:00,
2014-08-29 19:48:00,78.3,66.0,17.72,ESE,103,0.0,0.0,66,0.00,,---,0.00,VWS V15.00,2014-08-30 00:48:00,
2014-08-29 19:49:00,78.3,66.0,17.72,SE,130,0.0,0.0,66,0.00,,---,0.00,VWS V15.00,2014-08-30 00:49:00,
2014-08-29 19:50:00,78.3,66.0,17.72,SSE,152,0.0,0.0,66,0.00,,---,0.00,VWS V15.00,2014-08-30 00:50:00,
2014-08-29 19:53:00,78.1,65.8,17.72,ESE,117,0.0,0.0,66,0.00,,---,0.00,VWS V15.00,2014-08-30 00:53:00,
2014-08-29 19:54:00,78.1,65.8,17.72,ESE,116,0.0,0.0,66,0.00,,---,0.00,VWS V15.00,2014-08-30 00:54:00,
2014-08-29 19:55:00,77.9,65.6,17.72,ESE,112,0.0,0.0,66,0.00,,---,0.00,VWS V15.00,2014-08-30 00:55:00,
2014-08-29 19:58:00,77.7,65.5,17.72,ENE,74,0.0,0.0,66,0.00,,---,0.00,VWS V15.00,2014-08-30 00:58:00,
2014-08-29 19:59:00,77.7,65.5,17.72,ENE,77,0.0,0.0,66,0.00,,---,0.00,VWS V15.00,2014-08-30 00:59:00,
2014-08-29 20:00:00,77.5,65.3,17.72,SW,225,0.0,0.0,66,0.00,,---,0.00,VWS V15.00,2014-08-30 01:00:00,
2014-08-29 20:02:00,77.5,65.3,17.72,SW,225,0.0,0.0,66,0.00,,---,0.00,VWS V15.00,2014-08-30 01:02:00,
2014-08-29 20:03:00,77.5,65.3,17.72,SE,137,0.0,0.0,66,0.00,,---,0.00,VWS V15.00,2014-08-30 01:03:00,
2014-08-29 20:04:00,77.4,65.1,17.72,SE,137,0.0,0.0,66,0.00,,---,0.00,VWS V15.00,2014-08-30 01:04:00,
2014-08-29 20:05:00,77.4,65.6,17.72,SE,137,0.0,0.0,67,0.00,,---,0.00,VWS V15.00,2014-08-30 01:05:00,
2014-08-29 20:07:00,77.2,65.4,17.72,SE,137,0.0,0.0,67,0.00,,---,0.00,VWS V15.00,2014-08-30 01:07:00,
2014-08-29 20:09:00,77.2,65.4,17.72,SE,137,0.0,0.0,67,0.00,,---,0.00,VWS V15.00,2014-08-30 01:09:00,
2014-08-29 20:10:00,77.2,65.4,17.72,SE,127,0.0,0.0,67,0.00,,---,0.00,VWS V15.00,2014-08-30 01:10:00,
2014-08-29 20:11:00,77.0,65.6,17.72,SE,127,0.0,0.0,68,0.00,,---,0.00,VWS V15.00,2014-08-30 01:11:00,
2014-08-29 20:12:00,77.0,66.1,17.72,SE,127,0.0,0.0,69,0.00,,---,0.00,VWS V15.00,2014-08-30 01:12:00,
2014-08-29 20:14:00,76.8,65.9,17.72,ENE,77,0.0,0.0,69,0.00,,---,0.00,VWS V15.00,2014-08-30 01:14:00,
2014-08-29 20:15:00,76.6,65.7,17.72,ENE,74,0.0,0.0,69,0.00,,---,0.00,VWS V15.00,2014-08-30 01:15:00,
2014-08-29 20:16:00,76.6,65.7,17.72,East,93,0.0,0.0,69,0.00,,---,0.00,VWS V15.00,2014-08-30 01:16:00,
2014-08-29 20:17:00,76.6,66.1,17.72,East,85,0.0,0.0,70,0.00,,---,0.00,VWS V15.00,2014-08-30 01:17:00,
2014-08-29 20:19:00,76.5,66.4,17.72,SSE,167,0.0,0.0,71,0.00,,---,0.00,VWS V15.00,2014-08-30 01:19:00,
2014-08-29 20:20:00,76.5,66.4,17.72,SSE,165,0.0,0.0,71,0.00,,---,0.00,VWS V15.00,2014-08-30 01:20:00,
2014-08-29 20:21:00,76.3,66.2,17.72,SSE,165,0.0,0.0,71,0.00,,---,0.00,VWS V15.00,2014-08-30 01:21:00,
2014-08-29 20:22:00,76.3,66.2,17.72,SSE,165,0.0,0.0,71,0.00,,---,0.00,VWS V15.00,2014-08-30 01:22:00,
2014-08-29 20:25:00,76.3,66.6,17.72,East,96,0.0,0.0,72,0.00,,---,0.00,VWS V15.00,2014-08-30 01:25:00,
2014-08-29 20:26:00,76.1,66.4,17.72,East,96,0.0,0.0,72,0.00,,---,0.00,VWS V15.00,2014-08-30 01:26:00,
2014-08-29 20:27:00,76.1,66.4,17.72,East,96,0.0,0.0,72,0.00,,---,0.00,VWS V15.00,2014-08-30 01:27:00,
2014-08-29 20:30:00,75.9,66.2,17.72,East,96,0.0,0.0,72,0.00,,---,0.00,VWS V15.00,2014-08-30 01:30:00,
2014-08-29 20:31:00,75.9,66.2,17.72,East,96,0.0,0.0,72,0.00,,---,0.00,VWS V15.00,2014-08-30 01:31:00,
2014-08-29 20:32:00,75.9,66.7,17.72,SSE,159,0.0,0.0,73,0.00,,---,0.00,VWS V15.00,2014-08-30 01:32:00,
2014-08-29 20:33:00,75.9,66.7,17.72,SSE,159,0.0,0.0,73,0.00,,---,0.00,VWS V15.00,2014-08-30 01:33:00,
2014-08-29 20:35:00,75.9,67.0,17.72,SSE,163,0.0,0.0,74,0.00,,---,0.00,VWS V15.00,2014-08-30 01:35:00,
2014-08-29 20:36:00,75.9,67.0,17.72,SSE,163,0.0,0.0,74,0.00,,---,0.00,VWS V15.00,2014-08-30 01:36:00,
2014-08-29 20:37:00,75.7,66.9,17.72,SSE,163,0.0,0.0,74,0.00,,---,0.00,VWS V15.00,2014-08-30 01:37:00,
2014-08-29 20:38:00,75.7,66.5,17.72,SSE,163,0.0,0.0,73,0.00,,---,0.00,VWS V15.00,2014-08-30 01:38:00,
2014-08-29 20:41:00,75.7,66.9,17.72,South,172,0.0,0.0,74,0.00,,---,0.00,VWS V15.00,2014-08-30 01:41:00,
2014-08-29 20:42:00,75.7,66.9,17.72,SSE,157,0.0,0.0,74,0.00,,---,0.00,VWS V15.00,2014-08-30 01:42:00,
2014-08-29 20:43:00,75.7,66.9,17.72,ESE,121,0.0,0.0,74,0.00,,---,0.00,VWS V15.00,2014-08-30 01:43:00,
2014-08-29 20:46:00,75.7,66.9,17.72,SSE,148,0.0,0.0,74,0.00,,---,0.00,VWS V15.00,2014-08-30 01:46:00,
2014-08-29 20:47:00,75.7,66.9,17.72,South,187,0.0,0.0,74,0.00,,---,0.00,VWS V15.00,2014-08-30 01:47:00,
2014-08-29 20:48:00,75.7,66.9,17.72,South,187,0.0,0.0,74,0.00,,---,0.00,VWS V15.00,2014-08-30 01:48:00,
2014-08-29 20:49:00,75.7,66.9,17.72,SSE,149,0.0,0.0,74,0.00,,---,0.00,VWS V15.00,2014-08-30 01:49:00,
2014-08-29 20:52:00,75.7,66.9,17.72,ESE,104,0.0,4.9,74,0.00,,---,0.00,VWS V15.00,2014-08-30 01:52:00,
2014-08-29 20:53:00,75.9,66.7,17.72,East,93,0.0,0.0,73,0.00,,---,0.00,VWS V15.00,2014-08-30 01:53:00,
2014-08-29 20:55:00,75.9,66.7,17.72,ESE,122,0.0,2.7,73,0.00,,---,0.00,VWS V15.00,2014-08-30 01:55:00,
2014-08-29 20:57:00,75.9,66.7,17.72,SE,136,0.0,0.0,73,0.00,,---,0.00,VWS V15.00,2014-08-30 01:57:00,
2014-08-29 20:58:00,75.9,66.2,17.72,SSE,165,0.0,0.0,72,0.00,,---,0.00,VWS V15.00,2014-08-30 01:58:00,
2014-08-29 20:59:00,75.9,66.2,17.72,SE,140,0.0,0.0,72,0.00,,---,0.00,VWS V15.00,2014-08-30 01:59:00,
2014-08-29 21:00:00,75.9,66.2,17.72,SE,143,0.0,0.0,72,0.00,,---,0.00,VWS V15.00,2014-08-30 02:00:00,
2014-08-29 21:01:00,75.9,66.2,17.72,SSW,198,0.0,0.0,72,0.00,,---,0.00,VWS V15.00,2014-08-30 02:01:00,
2014-08-29 21:02:00,76.1,66.4,17.72,South,186,0.0,0.0,72,0.00,,---,0.00,VWS V15.00,2014-08-30 02:02:00,
2014-08-29 21:03:00,76.1,66.4,17.72,SE,128,0.0,0.0,72,0.00,,---,0.00,VWS V15.00,2014-08-30 02:03:00,
2014-08-29 21:04:00,76.1,66.4,17.72,South,169,0.0,0.0,72,0.00,,---,0.00,VWS V15.00,2014-08-30 02:04:00,
2014-08-29 21:05:00,76.1,66.4,17.72,ESE,111,0.0,0.0,72,0.00,,---,0.00,VWS V15.00,2014-08-30 02:05:00,
2014-08-29 21:07:00,76.1,66.4,17.72,SSW,207,0.0,0.0,72,0.00,,---,0.00,VWS V15.00,2014-08-30 02:07:00,
2014-08-29 21:08:00,76.1,66.4,17.72,East,96,2.2,2.2,72,0.00,,---,0.00,VWS V15.00,2014-08-30 02:08:00,
2014-08-29 21:09:00,76.1,66.4,17.72,SSE,154,0.0,0.0,72,0.00,,---,0.00,VWS V15.00,2014-08-30 02:09:00,
2014-08-29 21:10:00,76.1,66.0,17.72,SSW,195,0.0,0.0,71,0.00,,---,0.00,VWS V15.00,2014-08-30 02:10:00,
2014-08-29 21:13:00,76.1,66.0,17.72,SE,124,0.0,0.0,71,0.00,,---,0.00,VWS V15.00,2014-08-30 02:13:00,
2014-08-29 21:14:00,76.1,66.0,17.72,SSE,168,0.0,0.0,71,0.00,,---,0.00,VWS V15.00,2014-08-30 02:14:00,
2014-08-29 21:16:00,76.1,66.0,17.72,South,179,2.7,2.7,71,0.00,,---,0.00,VWS V15.00,2014-08-30 02:16:00,
2014-08-29 21:18:00,76.1,66.0,17.72,SE,139,0.0,0.0,71,0.00,,---,0.00,VWS V15.00,2014-08-30 02:18:00,
2014-08-29 21:19:00,76.1,66.0,17.72,SSE,166,0.0,0.0,71,0.00,,---,0.00,VWS V15.00,2014-08-30 02:19:00,
2014-08-29 21:20:00,76.1,66.0,17.72,East,95,0.0,0.0,71,0.00,,---,0.00,VWS V15.00,2014-08-30 02:20:00,
2014-08-29 21:22:00,76.1,66.0,17.72,SE,141,0.0,0.0,71,0.00,,---,0.00,VWS V15.00,2014-08-30 02:22:00,
2014-08-29 21:23:00,76.1,66.0,17.72,SSE,156,0.0,0.0,71,0.00,,---,0.00,VWS V15.00,2014-08-30 02:23:00,
2014-08-29 21:24:00,76.1,66.0,17.72,SE,143,0.0,0.0,71,0.00,,---,0.00,VWS V15.00,2014-08-30 02:24:00,
2014-08-29 21:25:00,76.1,66.0,17.72,SE,128,0.0,0.0,71,0.00,,---,0.00,VWS V15.00,2014-08-30 02:25:00,
2014-08-29 21:27:00,76.1,66.0,17.72,SE,129,0.0,0.0,71,0.00,,---,0.00,VWS V15.00,2014-08-30 02:27:00,
2014-08-29 21:29:00,76.1,66.0,17.72,SE,135,0.0,0.0,71,0.00,,---,0.00,VWS V15.00,2014-08-30 02:29:00,
2014-08-29 21:30:00,76.1,66.0,17.72,SSE,150,0.0,0.0,71,0.00,,---,0.00,VWS V15.00,2014-08-30 02:30:00,
2014-08-29 21:32:00,76.1,66.0,17.72,SSW,206,0.0,0.0,71,0.00,,---,0.00,VWS V15.00,2014-08-30 02:32:00,
2014-08-29 21:34:00,76.1,66.0,17.72,SE,124,0.0,0.0,71,0.00,,---,0.00,VWS V15.00,2014-08-30 02:34:00,
2014-08-29 21:35:00,76.1,66.0,17.72,South,189,0.0,0.0,71,0.00,,---,0.00,VWS V15.00,2014-08-30 02:35:00,
2014-08-29 21:36:00,76.1,66.0,17.72,SSW,203,0.0,0.0,71,0.00,,---,0.00,VWS V15.00,2014-08-30 02:36:00,
2014-08-29 21:37:00,76.1,66.0,17.72,SSW,204,0.0,0.0,71,0.00,,---,0.00,VWS V15.00,2014-08-30 02:37:00,
2014-08-29 21:39:00,75.9,65.4,17.72,SSW,204,0.0,0.0,70,0.00,,---,0.00,VWS V15.00,2014-08-30 02:39:00,
2014-08-29 21:40:00,75.9,65.4,17.72,SSW,210,0.0,0.0,70,0.00,,---,0.00,VWS V15.00,2014-08-30 02:40:00,
2014-08-29 21:43:00,75.7,65.3,17.72,SSW,207,0.0,0.0,70,0.00,,---,0.00,VWS V15.00,2014-08-30 02:43:00,
2014-08-29 21:44:00,75.7,65.3,17.72,SSE,156,0.0,0.0,70,0.00,,---,0.00,VWS V15.00,2014-08-30 02:44:00,
2014-08-29 21:45:00,75.7,65.7,17.72,SSW,213,0.0,0.0,71,0.00,,---,0.00,VWS V15.00,2014-08-30 02:45:00,
2014-08-29 21:46:00,75.7,65.7,17.72,East,84,0.0,0.0,71,0.00,,---,0.00,VWS V15.00,2014-08-30 02:46:00,
2014-08-29 21:48:00,75.7,65.7,17.72,SE,133,0.0,0.0,71,0.00,,---,0.00,VWS V15.00,2014-08-30 02:48:00,
2014-08-29 21:49:00,75.7,65.7,17.72,SE,133,0.0,0.0,71,0.00,,---,0.00,VWS V15.00,2014-08-30 02:49:00,
2014-08-29 21:50:00,75.7,65.7,17.72,SE,146,0.0,0.0,71,0.00,,---,0.00,VWS V15.00,2014-08-30 02:50:00,
2014-08-29 21:51:00,75.7,65.7,17.72,SE,131,0.0,0.0,71,0.00,,---,0.00,VWS V15.00,2014-08-30 02:51:00,
2014-08-29 21:52:00,75.7,65.7,17.72,SE,141,0.0,0.0,71,0.00,,---,0.00,VWS V15.00,2014-08-30 02:52:00,
2014-08-29 21:53:00,75.7,65.3,17.72,South,174,0.0,2.7,70,0.00,,---,0.00,VWS V15.00,2014-08-30 02:53:00,
2014-08-29 21:54:00,75.7,65.3,17.72,SE,129,0.0,0.0,70,0.00,,---,0.00,VWS V15.00,2014-08-30 02:54:00,
2014-08-29 21:55:00,75.7,65.3,17.72,SE,136,0.0,0.0,70,0.00,,---,0.00,VWS V15.00,2014-08-30 02:55:00,
2014-08-29 21:56:00,75.7,65.3,17.72,South,191,0.0,0.0,70,0.00,,---,0.00,VWS V15.00,2014-08-30 02:56:00,
2014-08-29 21:57:00,75.6,65.1,17.72,SSW,198,0.0,0.0,70,0.00,,---,0.00,VWS V15.00,2014-08-30 02:57:00,
2014-08-29 21:59:00,75.6,65.1,17.72,ESE,115,2.7,3.1,70,0.00,,---,0.00,VWS V15.00,2014-08-30 02:59:00,
2014-08-29 22:00:00,75.6,65.1,17.72,South,190,0.0,0.0,70,0.00,,---,0.00,VWS V15.00,2014-08-30 03:00:00,
2014-08-29 22:01:00,75.6,65.1,17.72,South,190,0.0,0.0,70,0.00,,---,0.00,VWS V15.00,2014-08-30 03:01:00,
2014-08-29 22:03:00,75.6,65.1,17.72,SE,129,0.0,0.0,70,0.00,,---,0.00,VWS V15.00,2014-08-30 03:03:00,
2014-08-29 22:04:00,75.6,65.1,17.72,SSE,149,0.0,0.0,70,0.00,,---,0.00,VWS V15.00,2014-08-30 03:04:00,
2014-08-29 22:05:00,75.6,65.1,17.72,SSW,198,0.0,0.0,70,0.00,,---,0.00,VWS V15.00,2014-08-30 03:05:00,
2014-08-29 22:06:00,75.4,64.9,17.72,SE,136,0.0,0.0,70,0.00,,---,0.00,VWS V15.00,2014-08-30 03:06:00,